Wetterdaten: Samstag, 25.07.2009
Datum Zeit Temp. Innen Temp. Aussen UV X Diff Temp. Feuchte Inne Feuchte Auss Sonnenschein Luftdruck Regen ab 0,1 Wind Sonnenschein Windben
25.07.2009 00:00 22,5 C 16,0 C 0,0 UV-I 0,0 C 55 % 80 % 0 % 1015,9 hPa 0,0 l/m 2,6 km/h (1 Bft) 0 min 5,8 km/h (2 Bft)
25.07.2009 00:05 22,4 C 16,0 C 0,0 UV-I 0,0 C 55 % 80 % 0 % 1015,9 hPa 0,0 l/m 3,8 km/h (1 Bft) 0 min 8,4 km/h (2 Bft)
25.07.2009 00:10 22,4 C 16,1 C 0,0 UV-I 0,0 C 56 % 81 % 0 % 1015,9 hPa 0,0 l/m 5,1 km/h (1 Bft) 0 min 9,1 km/h (2 Bft)
25.07.2009 00:15 22,4 C 16,0 C 0,0 UV-I 0,0 C 56 % 81 % 0 % 1015,9 hPa 0,0 l/m 4,8 km/h (1 Bft) 0 min 9,4 km/h (2 Bft)
25.07.2009 00:20 22,4 C 15,9 C 0,0 UV-I 0,0 C 56 % 81 % 0 % 1016,0 hPa 0,0 l/m 4,1 km/h (1 Bft) 0 min 4,3 km/h (1 Bft)
25.07.2009 00:25 22,4 C 15,9 C 0,0 UV-I 0,0 C 56 % 81 % 0 % 1016,0 hPa 0,0 l/m 4,1 km/h (1 Bft) 0 min 16,1 km/h (3 Bft)
25.07.2009 00:30 22,3 C 15,9 C 0,0 UV-I 0,0 C 56 % 81 % 0 % 1016,0 hPa 0,0 l/m 4,3 km/h (1 Bft) 0 min 5,3 km/h (1 Bft)
25.07.2009 00:35 22,3 C 15,9 C 0,0 UV-I 0,0 C 56 % 81 % 0 % 1016,0 hPa 0,0 l/m 4,1 km/h (1 Bft) 0 min 6,0 km/h (2 Bft)
25.07.2009 00:40 22,2 C 15,7 C 0,0 UV-I 0,0 C 56 % 82 % 0 % 1016,2 hPa 0,0 l/m 2,6 km/h (1 Bft) 0 min 0,0 km/h (0 Bft)
25.07.2009 00:45 22,2 C 15,7 C 0,0 UV-I 0,0 C 56 % 82 % 0 % 1016,2 hPa 0,0 l/m 2,6 km/h (1 Bft) 0 min 4,1 km/h (1 Bft)
25.07.2009 00:50 22,2 C 15,6 C 0,0 UV-I 0,0 C 57 % 82 % 0 % 1016,2 hPa 0,0 l/m 2,6 km/h (1 Bft) 0 min 5,8 km/h (2 Bft)
25.07.2009 00:55 22,2 C 15,7 C 0,0 UV-I 0,0 C 57 % 83 % 0 % 1016,2 hPa 0,0 l/m 3,1 km/h (1 Bft) 0 min 8,4 km/h (2 Bft)
25.07.2009 01:00 22,2 C 15,6 C 0,0 UV-I 0,0 C 57 % 83 % 0 % 1016,5 hPa 0,0 l/m 3,8 km/h (1 Bft) 0 min 4,3 km/h (1 Bft)
25.07.2009 01:05 22,1 C 15,6 C 0,0 UV-I 0,0 C 57 % 83 % 0 % 1016,5 hPa 0,0 l/m 4,1 km/h (1 Bft) 0 min 7,9 km/h (2 Bft)
25.07.2009 01:10 22,1 C 15,5 C 0,0 UV-I 0,0 C 57 % 83 % 0 % 1016,5 hPa 0,0 l/m 3,8 km/h (1 Bft) 0 min 3,6 km/h (1 Bft)
25.07.2009 01:15 22,1 C 15,4 C 0,0 UV-I 0,0 C 57 % 83 % 0 % 1016,5 hPa 0,0 l/m 3,6 km/h (1 Bft) 0 min 6,5 km/h (2 Bft)
25.07.2009 01:20 22,0 C 15,5 C 0,0 UV-I 0,0 C 57 % 84 % 0 % 1016,6 hPa 0,0 l/m 3,4 km/h (1 Bft) 0 min 6,7 km/h (2 Bft)
25.07.2009 01:25 22,0 C 15,5 C 0,0 UV-I 0,0 C 57 % 84 % 0 % 1016,6 hPa 0,0 l/m 3,1 km/h (1 Bft) 0 min 3,8 km/h (1 Bft)
25.07.2009 01:30 22,0 C 15,3 C 0,0 UV-I 0,0 C 57 % 84 % 0 % 1016,6 hPa 0,0 l/m 2,6 km/h (1 Bft) 0 min 3,8 km/h (1 Bft)
25.07.2009 01:35 22,0 C 15,3 C 0,0 UV-I 0,0 C 57 % 84 % 0 % 1016,6 hPa 0,0 l/m 2,9 km/h (1 Bft) 0 min 4,3 km/h (1 Bft)
25.07.2009 01:40 22,0 C 15,3 C 0,0 UV-I 0,0 C 57 % 84 % 0 % 1016,5 hPa 0,0 l/m 3,4 km/h (1 Bft) 0 min 4,8 km/h (1 Bft)
25.07.2009 01:45 21,9 C 15,2 C 0,0 UV-I 0,0 C 57 % 84 % 0 % 1016,5 hPa 0,0 l/m 3,4 km/h (1 Bft) 0 min 3,8 km/h (1 Bft)
25.07.2009 01:50 21,9 C 15,2 C 0,0 UV-I 0,0 C 58 % 84 % 0 % 1016,5 hPa 0,0 l/m 3,8 km/h (1 Bft) 0 min 6,3 km/h (2 Bft)
25.07.2009 01:55 21,9 C 15,1 C 0,0 UV-I 0,0 C 58 % 84 % 0 % 1016,5 hPa 0,0 l/m 4,1 km/h (1 Bft) 0 min 2,9 km/h (1 Bft)
25.07.2009 02:00 21,8 C 15,1 C 0,0 UV-I 0,0 C 58 % 85 % 0 % 1016,7 hPa 0,0 l/m 4,3 km/h (1 Bft) 0 min 4,1 km/h (1 Bft)
25.07.2009 02:05 21,8 C 15,0 C 0,0 UV-I 0,0 C 58 % 85 % 0 % 1016,7 hPa 0,0 l/m 3,8 km/h (1 Bft) 0 min 6,7 km/h (2 Bft)
25.07.2009 02:10 21,8 C 15,1 C 0,0 UV-I 0,0 C 58 % 85 % 0 % 1016,7 hPa 0,0 l/m 3,4 km/h (1 Bft) 0 min 3,4 km/h (1 Bft)
25.07.2009 02:15 21,8 C 15,1 C 0,0 UV-I 0,0 C 58 % 86 % 0 % 1016,7 hPa 0,0 l/m 3,4 km/h (1 Bft) 0 min 4,1 km/h (1 Bft)
25.07.2009 02:25 21,7 C 15,0 C 0,0 UV-I 0,0 C 58 % 86 % 0 % 1016,8 hPa 0,0 l/m 4,1 km/h (1 Bft) 0 min 16,8 km/h (3 Bft)
25.07.2009 02:30 21,7 C 14,9 C 0,0 UV-I 0,0 C 58 % 86 % 0 % 1016,8 hPa 0,0 l/m 3,6 km/h (1 Bft) 0 min 4,8 km/h (1 Bft)
25.07.2009 02:35 21,7 C 14,9 C 0,0 UV-I 0,0 C 58 % 86 % 0 % 1016,8 hPa 0,0 l/m 3,1 km/h (1 Bft) 0 min 0,0 km/h (0 Bft)
25.07.2009 02:40 21,6 C 14,9 C 0,0 UV-I 0,0 C 58 % 86 % 0 % 1016,9 hPa 0,0 l/m 3,4 km/h (1 Bft) 0 min 5,5 km/h (1 Bft)
25.07.2009 02:45 21,6 C 14,9 C 0,0 UV-I 0,0 C 59 % 86 % 0 % 1016,9 hPa 0,0 l/m 3,1 km/h (1 Bft) 0 min 2,9 km/h (1 Bft)
25.07.2009 02:50 21,6 C 14,9 C 0,0 UV-I 0,0 C 59 % 86 % 0 % 1016,9 hPa 0,0 l/m 3,4 km/h (1 Bft) 0 min 5,1 km/h (1 Bft)
25.07.2009 02:55 21,6 C 14,9 C 0,0 UV-I 0,0 C 59 % 86 % 0 % 1016,9 hPa 0,0 l/m 3,8 km/h (1 Bft) 0 min 6,0 km/h (2 Bft)
25.07.2009 03:00 21,6 C 14,9 C 0,0 UV-I 0,0 C 59 % 86 % 0 % 1017,0 hPa 0,0 l/m 4,3 km/h (1 Bft) 0 min 3,6 km/h (1 Bft)
25.07.2009 03:05 21,6 C 14,9 C 0,0 UV-I 0,0 C 59 % 86 % 0 % 1017,0 hPa 0,0 l/m 4,3 km/h (1 Bft) 0 min 6,3 km/h (2 Bft)
25.07.2009 03:10 21,6 C 14,8 C 0,0 UV-I 0,0 C 59 % 86 % 0 % 1017,0 hPa 0,0 l/m 3,8 km/h (1 Bft) 0 min 5,8 km/h (2 Bft)
25.07.2009 03:15 21,5 C 14,8 C 0,0 UV-I 0,0 C 59 % 86 % 0 % 1017,0 hPa 0,0 l/m 3,4 km/h (1 Bft) 0 min 5,3 km/h (1 Bft)
25.07.2009 03:20 21,5 C 14,8 C 0,0 UV-I 0,0 C 59 % 86 % 0 % 1017,1 hPa 0,0 l/m 4,3 km/h (1 Bft) 0 min 7,2 km/h (2 Bft)
25.07.2009 03:25 21,5 C 14,9 C 0,0 UV-I 0,0 C 59 % 86 % 0 % 1017,1 hPa 0,0 l/m 4,8 km/h (1 Bft) 0 min 4,8 km/h (1 Bft)
25.07.2009 03:30 21,5 C 14,8 C 0,0 UV-I 0,0 C 59 % 86 % 0 % 1017,1 hPa 0,0 l/m 4,3 km/h (1 Bft) 0 min 4,3 km/h (1 Bft)
25.07.2009 03:35 21,4 C 14,8 C 0,0 UV-I 0,0 C 59 % 86 % 0 % 1017,1 hPa 0,0 l/m 3,8 km/h (1 Bft) 0 min 6,7 km/h (2 Bft)
25.07.2009 03:40 21,4 C 14,8 C 0,0 UV-I 0,0 C 59 % 86 % 0 % 1017,1 hPa 0,0 l/m 5,1 km/h (1 Bft) 0 min 7,2 km/h (2 Bft)
25.07.2009 03:45 21,4 C 14,8 C 0,0 UV-I 0,0 C 59 % 86 % 0 % 1017,1 hPa 0,0 l/m 5,3 km/h (1 Bft) 0 min 17,1 km/h (3 Bft)
25.07.2009 03:50 21,4 C 14,7 C 0,0 UV-I 0,0 C 59 % 86 % 0 % 1017,1 hPa 0,0 l/m 4,3 km/h (1 Bft) 0 min 15,2 km/h (3 Bft)
25.07.2009 03:55 21,2 C 14,7 C 0,0 UV-I 0,0 C 59 % 86 % 0 % 1017,1 hPa 0,0 l/m 4,8 km/h (1 Bft) 0 min 13,2 km/h (3 Bft)
25.07.2009 04:05 21,2 C 14,7 C 0,0 UV-I 0,0 C 59 % 86 % 0 % 1017,1 hPa 0,0 l/m 5,3 km/h (1 Bft) 0 min 3,8 km/h (1 Bft)
25.07.2009 04:10 21,2 C 14,7 C 0,0 UV-I 0,0 C 59 % 86 % 0 % 1017,1 hPa 0,0 l/m 3,8 km/h (1 Bft) 0 min 5,8 km/h (2 Bft)
25.07.2009 04:20 21,2 C 14,7 C 0,0 UV-I 0,0 C 59 % 86 % 0 % 1016,9 hPa 0,0 l/m 3,6 km/h (1 Bft) 0 min 6,7 km/h (2 Bft)
25.07.2009 04:25 21,2 C 14,8 C 0,0 UV-I 0,0 C 59 % 86 % 0 % 1016,9 hPa 0,0 l/m 4,6 km/h (1 Bft) 0 min 8,9 km/h (2 Bft)
25.07.2009 04:30 21,1 C 14,8 C 0,0 UV-I 0,0 C 59 % 86 % 0 % 1016,9 hPa 0,0 l/m 4,8 km/h (1 Bft) 0 min 8,9 km/h (2 Bft)
25.07.2009 04:35 21,1 C 14,9 C 0,0 UV-I 0,0 C 59 % 86 % 0 % 1016,9 hPa 0,0 l/m 4,1 km/h (1 Bft) 0 min 7,9 km/h (2 Bft)
25.07.2009 04:40 21,1 C 14,9 C 0,0 UV-I 0,0 C 59 % 86 % 0 % 1017,4 hPa 0,0 l/m 4,3 km/h (1 Bft) 0 min 9,1 km/h (2 Bft)
25.07.2009 04:50 21,1 C 15,0 C 0,0 UV-I 0,0 C 59 % 86 % 0 % 1017,4 hPa 0,0 l/m 5,1 km/h (1 Bft) 0 min 6,3 km/h (2 Bft)
25.07.2009 04:55 21,1 C 15,0 C 0,0 UV-I 0,0 C 59 % 86 % 0 % 1017,4 hPa 0,0 l/m 6,0 km/h (2 Bft) 0 min 7,9 km/h (2 Bft)
25.07.2009 05:00 21,1 C 15,1 C 0,0 UV-I 0,0 C 59 % 85 % 0 % 1017,4 hPa 0,0 l/m 5,8 km/h (2 Bft) 0 min 10,1 km/h (2 Bft)
25.07.2009 05:05 21,0 C 15,1 C 0,0 UV-I 0,0 C 59 % 85 % 0 % 1017,4 hPa 0,0 l/m 5,1 km/h (1 Bft) 0 min 6,3 km/h (2 Bft)
25.07.2009 05:10 21,0 C 15,0 C 0,0 UV-I 0,0 C 59 % 85 % 0 % 1017,4 hPa 0,0 l/m 4,3 km/h (1 Bft) 0 min 0,0 km/h (0 Bft)
25.07.2009 05:14 21,0 C 15,0 C 0,0 UV-I 0,0 C 59 % 85 % 0 % 1017,4 hPa 0,0 l/m 4,3 km/h (1 Bft) 0 min 0,0 km/h (0 Bft)
25.07.2009 05:20 21,0 C 15,1 C 0,0 UV-I 0,0 C 59 % 85 % 0 % 1017,4 hPa 0,0 l/m 4,1 km/h (1 Bft) 0 min 5,3 km/h (1 Bft)
25.07.2009 05:25 21,0 C 15,1 C 0,0 UV-I 0,0 C 59 % 85 % 0 % 1017,4 hPa 0,0 l/m 5,1 km/h (1 Bft) 0 min 5,3 km/h (1 Bft)
25.07.2009 05:30 21,0 C 15,0 C 0,0 UV-I 0,0 C 59 % 85 % 0 % 1017,4 hPa 0,0 l/m 4,8 km/h (1 Bft) 0 min 2,4 km/h (1 Bft)
25.07.2009 05:35 21,0 C 15,1 C 0,0 UV-I 0,0 C 59 % 85 % 0 % 1017,4 hPa 0,0 l/m 3,8 km/h (1 Bft) 0 min 4,1 km/h (1 Bft)
25.07.2009 05:40 21,0 C 15,1 C 0,0 UV-I 0,0 C 59 % 85 % 0 % 1017,6 hPa 0,0 l/m 2,6 km/h (1 Bft) 0 min 5,1 km/h (1 Bft)
25.07.2009 05:45 21,0 C 15,0 C 0,0 UV-I 0,0 C 59 % 85 % 0 % 1017,6 hPa 0,0 l/m 2,4 km/h (1 Bft) 0 min 0,0 km/h (0 Bft)
25.07.2009 05:50 21,0 C 15,1 C 0,0 UV-I 0,0 C 59 % 85 % 0 % 1017,6 hPa 0,0 l/m 2,9 km/h (1 Bft) 0 min 6,5 km/h (2 Bft)
25.07.2009 05:55 20,9 C 15,1 C 0,0 UV-I 0,0 C 59 % 85 % 0 % 1017,6 hPa 0,0 l/m 4,1 km/h (1 Bft) 0 min 7,2 km/h (2 Bft)
25.07.2009 06:00 21,0 C 15,1 C 0,0 UV-I 0,0 C 59 % 85 % 0 % 1017,6 hPa 0,0 l/m 4,3 km/h (1 Bft) 0 min 8,7 km/h (2 Bft)
25.07.2009 06:05 21,0 C 15,1 C 0,0 UV-I 0,0 C 59 % 85 % 0 % 1017,6 hPa 0,0 l/m 3,6 km/h (1 Bft) 0 min 0,0 km/h (0 Bft)
25.07.2009 06:10 21,0 C 15,1 C 0,0 UV-I 0,0 C 59 % 85 % 0 % 1017,6 hPa 0,0 l/m 3,6 km/h (1 Bft) 0 min 7,9 km/h (2 Bft)
25.07.2009 06:15 21,0 C 15,1 C 0,0 UV-I 0,0 C 59 % 85 % 0 % 1017,6 hPa 0,0 l/m 3,4 km/h (1 Bft) 0 min 0,0 km/h (0 Bft)
25.07.2009 06:20 21,0 C 15,1 C 0,0 UV-I 0,0 C 60 % 85 % 0 % 1018,1 hPa 0,0 l/m 3,4 km/h (1 Bft) 0 min 4,1 km/h (1 Bft)
25.07.2009 06:25 21,0 C 15,1 C 0,0 UV-I 0,0 C 60 % 85 % 0 % 1018,1 hPa 0,0 l/m 2,6 km/h (1 Bft) 0 min 2,6 km/h (1 Bft)
25.07.2009 06:30 21,0 C 15,1 C 0,0 UV-I 0,0 C 60 % 85 % 0 % 1018,1 hPa 0,0 l/m 2,2 km/h (1 Bft) 0 min 0,0 km/h (0 Bft)
25.07.2009 06:35 21,0 C 15,2 C 0,0 UV-I 0,0 C 60 % 85 % 0 % 1018,1 hPa 0,0 l/m 2,2 km/h (1 Bft) 0 min 4,6 km/h (1 Bft)
25.07.2009 06:40 21,0 C 15,3 C 0,0 UV-I 0,0 C 60 % 85 % 0 % 1018,2 hPa 0,0 l/m 4,1 km/h (1 Bft) 0 min 0,0 km/h (0 Bft)
25.07.2009 06:45 21,0 C 15,3 C 0,0 UV-I 0,0 C 60 % 86 % 0 % 1018,2 hPa 0,0 l/m 3,6 km/h (1 Bft) 0 min 8,4 km/h (2 Bft)
25.07.2009 06:50 21,0 C 15,2 C 0,0 UV-I 0,0 C 60 % 86 % 0 % 1018,2 hPa 0,0 l/m 2,9 km/h (1 Bft) 0 min 6,5 km/h (2 Bft)
25.07.2009 06:55 21,0 C 15,2 C 0,0 UV-I 0,0 C 60 % 86 % 0 % 1018,2 hPa 0,0 l/m 3,4 km/h (1 Bft) 0 min 3,6 km/h (1 Bft)
25.07.2009 07:00 21,0 C 15,2 C 0,1 UV-I 0,0 C 60 % 86 % 0 % 1018,2 hPa 0,0 l/m 2,4 km/h (1 Bft) 0 min 3,4 km/h (1 Bft)
25.07.2009 07:05 21,0 C 15,2 C 0,0 UV-I 0,0 C 60 % 86 % 0 % 1018,2 hPa 0,0 l/m 2,6 km/h (1 Bft) 0 min 9,4 km/h (2 Bft)
25.07.2009 07:10 21,0 C 15,3 C 0,0 UV-I 0,0 C 60 % 86 % 0 % 1018,2 hPa 0,0 l/m 3,6 km/h (1 Bft) 0 min 7,0 km/h (2 Bft)
25.07.2009 07:15 21,0 C 15,3 C 0,1 UV-I 0,0 C 60 % 86 % 0 % 1018,2 hPa 0,0 l/m 3,6 km/h (1 Bft) 0 min 2,9 km/h (1 Bft)
25.07.2009 07:20 21,0 C 15,3 C 0,2 UV-I 0,0 C 60 % 86 % 0 % 1018,2 hPa 0,0 l/m 3,1 km/h (1 Bft) 0 min 2,9 km/h (1 Bft)
25.07.2009 07:25 21,0 C 15,3 C 0,1 UV-I 0,0 C 61 % 86 % 0 % 1018,2 hPa 0,0 l/m 2,6 km/h (1 Bft) 0 min 2,9 km/h (1 Bft)
25.07.2009 07:30 21,0 C 15,3 C 0,0 UV-I 0,0 C 60 % 86 % 0 % 1018,2 hPa 0,0 l/m 3,8 km/h (1 Bft) 0 min 6,5 km/h (2 Bft)
25.07.2009 07:35 21,0 C 15,3 C 0,3 UV-I 0,0 C 60 % 86 % 0 % 1018,2 hPa 0,0 l/m 5,3 km/h (1 Bft) 0 min 7,2 km/h (2 Bft)
25.07.2009 07:40 21,0 C 15,3 C 0,4 UV-I 0,0 C 60 % 86 % 0 % 1018,7 hPa 0,0 l/m 5,1 km/h (1 Bft) 0 min 6,5 km/h (2 Bft)
25.07.2009 07:45 21,0 C 15,3 C 0,4 UV-I 0,0 C 61 % 86 % 0 % 1018,7 hPa 0,0 l/m 3,8 km/h (1 Bft) 0 min 4,6 km/h (1 Bft)
25.07.2009 07:50 21,0 C 15,5 C 0,6 UV-I 0,0 C 61 % 86 % 0 % 1018,7 hPa 0,0 l/m 4,8 km/h (1 Bft) 0 min 2,6 km/h (1 Bft)
25.07.2009 07:55 21,0 C 15,5 C 0,6 UV-I 0,0 C 61 % 86 % 0 % 1018,7 hPa 0,0 l/m 5,1 km/h (1 Bft) 0 min 21,9 km/h (4 Bft)
25.07.2009 08:00 21,0 C 15,5 C 0,8 UV-I 0,1 C 61 % 86 % 3 % 1018,9 hPa 0,0 l/m 3,6 km/h (1 Bft) 0 min 5,8 km/h (2 Bft)
25.07.2009 08:05 21,0 C 15,6 C 0,9 UV-I 0,1 C 61 % 86 % 3 % 1018,9 hPa 0,0 l/m 3,6 km/h (1 Bft) 0 min 3,8 km/h (1 Bft)
25.07.2009 08:10 21,1 C 15,6 C 0,8 UV-I 0,3 C 61 % 86 % 9 % 1018,9 hPa 0,0 l/m 4,8 km/h (1 Bft) 0 min 6,5 km/h (2 Bft)
25.07.2009 08:15 21,1 C 15,6 C 0,6 UV-I 0,3 C 61 % 85 % 9 % 1018,9 hPa 0,0 l/m 3,8 km/h (1 Bft) 0 min 5,5 km/h (1 Bft)
25.07.2009 08:20 21,1 C 15,9 C 1,2 UV-I 0,2 C 61 % 85 % 6 % 1018,9 hPa 0,0 l/m 3,6 km/h (1 Bft) 0 min 7,5 km/h (2 Bft)
25.07.2009 08:30 21,1 C 15,9 C 1,3 UV-I 0,2 C 61 % 85 % 6 % 1018,9 hPa 0,0 l/m 5,1 km/h (1 Bft) 0 min 8,4 km/h (2 Bft)
25.07.2009 08:35 21,1 C 15,9 C 1,6 UV-I 0,3 C 61 % 85 % 9 % 1018,9 hPa 0,0 l/m 6,5 km/h (2 Bft) 0 min 7,5 km/h (2 Bft)
25.07.2009 08:40 21,2 C 16,1 C 1,7 UV-I 0,3 C 61 % 85 % 9 % 1019,1 hPa 0,0 l/m 6,3 km/h (2 Bft) 0 min 4,3 km/h (1 Bft)
25.07.2009 08:45 21,2 C 16,2 C 1,9 UV-I 0,4 C 61 % 84 % 11 % 1019,1 hPa 0,0 l/m 5,5 km/h (1 Bft) 0 min 5,1 km/h (1 Bft)
25.07.2009 08:50 21,2 C 16,3 C 1,9 UV-I 0,7 C 61 % 84 % 20 % 1019,1 hPa 0,0 l/m 6,3 km/h (2 Bft) 0 min 10,3 km/h (2 Bft)
25.07.2009 08:55 21,2 C 16,4 C 1,8 UV-I 0,6 C 61 % 83 % 17 % 1019,1 hPa 0,0 l/m 5,8 km/h (2 Bft) 0 min 9,4 km/h (2 Bft)
25.07.2009 09:00 21,2 C 16,5 C 2,0 UV-I 0,7 C 61 % 83 % 20 % 1018,9 hPa 0,0 l/m 5,8 km/h (2 Bft) 0 min 8,2 km/h (2 Bft)
25.07.2009 09:05 21,2 C 16,5 C 1,9 UV-I 0,5 C 61 % 82 % 14 % 1018,9 hPa 0,0 l/m 5,8 km/h (2 Bft) 0 min 7,5 km/h (2 Bft)
25.07.2009 09:15 21,2 C 16,6 C 1,7 UV-I 0,6 C 60 % 82 % 17 % 1018,9 hPa 0,0 l/m 6,3 km/h (2 Bft) 0 min 7,2 km/h (2 Bft)
25.07.2009 09:20 21,3 C 16,8 C 2,2 UV-I 0,6 C 60 % 82 % 17 % 1019,4 hPa 0,0 l/m 5,5 km/h (1 Bft) 0 min 5,3 km/h (1 Bft)
25.07.2009 09:25 21,2 C 16,8 C 2,3 UV-I 0,7 C 60 % 81 % 20 % 1019,4 hPa 0,0 l/m 5,8 km/h (2 Bft) 0 min 12,3 km/h (3 Bft)
25.07.2009 09:35 21,2 C 17,1 C 2,4 UV-I 0,8 C 60 % 81 % 23 % 1019,4 hPa 0,0 l/m 5,5 km/h (1 Bft) 0 min 11,8 km/h (2 Bft)
25.07.2009 09:40 21,2 C 17,3 C 2,4 UV-I 0,9 C 60 % 80 % 26 % 1019,4 hPa 0,0 l/m 4,6 km/h (1 Bft) 0 min 8,7 km/h (2 Bft)
25.07.2009 09:45 21,4 C 17,2 C 2,3 UV-I 1,0 C 60 % 78 % 29 % 1019,4 hPa 0,0 l/m 6,5 km/h (2 Bft) 0 min 23,8 km/h (4 Bft)
25.07.2009 09:50 21,4 C 17,3 C 2,4 UV-I 1,3 C 60 % 78 % 37 % 1019,4 hPa 0,0 l/m 7,9 km/h (2 Bft) 0 min 16,6 km/h (3 Bft)
25.07.2009 09:55 21,4 C 17,5 C 2,8 UV-I 2,0 C 60 % 78 % 57 % 1019,4 hPa 0,0 l/m 6,5 km/h (2 Bft) 0 min 4,3 km/h (1 Bft)
25.07.2009 10:00 21,4 C 17,6 C 2,8 UV-I 2,5 C 60 % 78 % 71 % 1019,8 hPa 0,0 l/m 6,7 km/h (2 Bft) 0 min 16,4 km/h (3 Bft)
25.07.2009 10:05 21,5 C 17,7 C 3,1 UV-I 2,1 C 60 % 78 % 60 % 1019,8 hPa 0,0 l/m 7,0 km/h (2 Bft) 0 min 2,9 km/h (1 Bft)
25.07.2009 10:10 21,5 C 17,7 C 3,5 UV-I 3,1 C 60 % 77 % 89 % 1019,8 hPa 0,0 l/m 7,9 km/h (2 Bft) 2 min 25,5 km/h (4 Bft)
25.07.2009 10:20 21,5 C 18,0 C 3,7 UV-I 2,0 C 60 % 75 % 57 % 1019,8 hPa 0,0 l/m 7,5 km/h (2 Bft) 0 min 12,5 km/h (3 Bft)
25.07.2009 10:30 21,6 C 18,1 C 7,9 UV-I 2,7 C 60 % 75 % 77 % 1019,8 hPa 0,0 l/m 5,8 km/h (2 Bft) 0 min 30,1 km/h (5 Bft)
25.07.2009 10:40 21,6 C 18,7 C 10,1 UV-I 4,3 C 60 % 74 % 100 % 1019,9 hPa 0,0 l/m 4,6 km/h (1 Bft) 2 min 7,5 km/h (2 Bft)
25.07.2009 10:50 21,7 C 18,9 C 9,4 UV-I 4,1 C 60 % 73 % 100 % 1019,9 hPa 0,0 l/m 7,5 km/h (2 Bft) 2 min 11,1 km/h (2 Bft)
25.07.2009 10:54 21,6 C 19,1 C 10,7 UV-I 4,1 C 60 % 72 % 100 % 1019,9 hPa 0,0 l/m 7,2 km/h (2 Bft) 2 min 9,9 km/h (2 Bft)
25.07.2009 10:59 21,7 C 19,2 C 12,6 UV-I 4,2 C 59 % 72 % 100 % 1020,1 hPa 0,0 l/m 6,7 km/h (2 Bft) 2 min 4,8 km/h (1 Bft)
25.07.2009 11:04 21,7 C 19,2 C 13,1 UV-I 4,8 C 59 % 71 % 100 % 1020,1 hPa 0,0 l/m 7,0 km/h (2 Bft) 2 min 9,9 km/h (2 Bft)
25.07.2009 11:06 21,7 C 19,2 C 13,1 UV-I 4,8 C 59 % 71 % 100 % 1020,1 hPa 0,0 l/m 7,0 km/h (2 Bft) 2 min 9,9 km/h (2 Bft)
25.07.2009 11:10 21,7 C 19,4 C 10,2 UV-I 4,0 C 60 % 72 % 100 % 1020,1 hPa 0,0 l/m 5,5 km/h (1 Bft) 2 min 6,0 km/h (2 Bft)
25.07.2009 11:15 21,7 C 19,5 C 4,1 UV-I 3,4 C 59 % 71 % 97 % 1020,1 hPa 0,0 l/m 5,8 km/h (2 Bft) 2 min 10,6 km/h (2 Bft)
25.07.2009 11:25 21,8 C 19,5 C 3,1 UV-I 1,9 C 59 % 71 % 54 % 1020,6 hPa 0,0 l/m 7,0 km/h (2 Bft) 0 min 8,4 km/h (2 Bft)
25.07.2009 11:30 21,8 C 19,6 C 7,0 UV-I 2,0 C 59 % 72 % 57 % 1020,6 hPa 0,0 l/m 5,1 km/h (1 Bft) 0 min 3,4 km/h (1 Bft)
25.07.2009 11:35 21,8 C 19,5 C 1,5 UV-I 1,2 C 59 % 71 % 34 % 1020,6 hPa 0,0 l/m 5,3 km/h (1 Bft) 0 min 9,9 km/h (2 Bft)
25.07.2009 11:45 21,8 C 19,2 C 4,8 UV-I 0,9 C 59 % 72 % 26 % 1020,6 hPa 0,0 l/m 6,3 km/h (2 Bft) 0 min 8,7 km/h (2 Bft)
25.07.2009 11:50 21,9 C 19,3 C 3,5 UV-I 0,9 C 59 % 72 % 26 % 1020,6 hPa 0,0 l/m 5,3 km/h (1 Bft) 0 min 13,0 km/h (3 Bft)
25.07.2009 11:55 21,9 C 19,2 C 3,5 UV-I 0,6 C 59 % 72 % 17 % 1020,6 hPa 0,0 l/m 5,3 km/h (1 Bft) 0 min 7,9 km/h (2 Bft)
25.07.2009 12:00 21,9 C 19,3 C 2,3 UV-I 0,4 C 59 % 71 % 11 % 1020,7 hPa 0,0 l/m 4,6 km/h (1 Bft) 0 min 5,1 km/h (1 Bft)
25.07.2009 12:05 21,9 C 19,3 C 4,6 UV-I 1,6 C 59 % 71 % 46 % 1020,7 hPa 0,0 l/m 4,3 km/h (1 Bft) 0 min 7,0 km/h (2 Bft)
25.07.2009 12:10 21,9 C 19,3 C 3,3 UV-I 1,4 C 59 % 70 % 40 % 1020,7 hPa 0,0 l/m 5,3 km/h (1 Bft) 0 min 17,8 km/h (3 Bft)
25.07.2009 12:15 22,0 C 19,4 C 0,9 UV-I 0,7 C 59 % 71 % 20 % 1020,7 hPa 0,0 l/m 4,8 km/h (1 Bft) 0 min 3,8 km/h (1 Bft)
25.07.2009 12:20 22,0 C 19,3 C 2,0 UV-I 0,5 C 59 % 70 % 14 % 1020,8 hPa 0,0 l/m 4,6 km/h (1 Bft) 0 min 10,3 km/h (2 Bft)
25.07.2009 12:25 22,0 C 19,3 C 1,4 UV-I 0,2 C 59 % 69 % 6 % 1020,8 hPa 0,0 l/m 5,5 km/h (1 Bft) 0 min 11,3 km/h (2 Bft)
25.07.2009 12:30 22,0 C 19,3 C 2,0 UV-I 0,2 C 59 % 70 % 6 % 1020,8 hPa 0,0 l/m 7,5 km/h (2 Bft) 0 min 4,6 km/h (1 Bft)
25.07.2009 12:35 22,0 C 19,3 C 4,6 UV-I 0,7 C 59 % 70 % 20 % 1020,8 hPa 0,0 l/m 7,2 km/h (2 Bft) 0 min 9,1 km/h (2 Bft)
25.07.2009 12:40 22,0 C 19,6 C 6,6 UV-I 1,8 C 59 % 70 % 51 % 1021,1 hPa 0,0 l/m 6,0 km/h (2 Bft) 0 min 5,3 km/h (1 Bft)
25.07.2009 12:45 22,0 C 19,6 C 3,1 UV-I 1,1 C 59 % 71 % 31 % 1021,1 hPa 0,0 l/m 6,7 km/h (2 Bft) 0 min 6,0 km/h (2 Bft)
25.07.2009 12:49 22,0 C 19,1 C 1,0 UV-I 0,0 C 59 % 75 % 0 % 1021,1 hPa 0,6 l/m 7,0 km/h (2 Bft) 0 min 13,0 km/h (3 Bft)
25.07.2009 12:51 22,0 C 19,1 C 1,0 UV-I 0,0 C 59 % 75 % 0 % 1021,1 hPa 0,0 l/m 7,0 km/h (2 Bft) 0 min 13,0 km/h (3 Bft)
25.07.2009 12:52 22,0 C 18,9 C 0,7 UV-I 0,0 C 59 % 76 % 0 % 1021,1 hPa 0,0 l/m 6,5 km/h (2 Bft) 0 min 0,0 km/h (0 Bft)
25.07.2009 12:54 22,0 C 18,7 C 0,7 UV-I 0,0 C 59 % 77 % 0 % 1021,1 hPa 0,8 l/m 6,0 km/h (2 Bft) 0 min 14,9 km/h (3 Bft)
25.07.2009 12:56 22,0 C 18,6 C 1,1 UV-I 0,0 C 59 % 77 % 0 % 1021,9 hPa 0,1 l/m 6,0 km/h (2 Bft) 0 min 14,9 km/h (3 Bft)
25.07.2009 12:58 22,0 C 18,5 C 1,1 UV-I 0,0 C 60 % 78 % 0 % 1021,9 hPa 0,0 l/m 4,1 km/h (1 Bft) 0 min 6,0 km/h (2 Bft)
25.07.2009 13:00 22,0 C 18,4 C 1,1 UV-I 0,0 C 60 % 78 % 0 % 1021,9 hPa 0,1 l/m 2,9 km/h (1 Bft) 0 min 0,0 km/h (0 Bft)
25.07.2009 13:02 22,0 C 18,3 C 2,3 UV-I 0,0 C 60 % 79 % 0 % 1021,9 hPa 0,1 l/m 2,4 km/h (1 Bft) 0 min 3,8 km/h (1 Bft)
25.07.2009 13:04 22,0 C 18,3 C 2,3 UV-I 0,0 C 60 % 79 % 0 % 1021,9 hPa 0,0 l/m 2,6 km/h (1 Bft) 0 min 4,1 km/h (1 Bft)
25.07.2009 13:06 22,0 C 18,2 C 3,1 UV-I 0,0 C 60 % 79 % 0 % 1021,9 hPa 0,0 l/m 1,7 km/h (1 Bft) 0 min 4,1 km/h (1 Bft)
25.07.2009 13:08 22,0 C 18,1 C 3,1 UV-I 0,0 C 61 % 80 % 0 % 1021,9 hPa 0,0 l/m 1,7 km/h (1 Bft) 0 min 3,4 km/h (1 Bft)
25.07.2009 13:10 22,1 C 18,1 C 3,1 UV-I 0,0 C 61 % 80 % 0 % 1021,9 hPa 0,0 l/m 1,7 km/h (1 Bft) 0 min 2,9 km/h (1 Bft)
25.07.2009 13:12 22,1 C 18,1 C 3,8 UV-I 0,0 C 61 % 81 % 0 % 1021,9 hPa 0,0 l/m 2,2 km/h (1 Bft) 0 min 3,8 km/h (1 Bft)
25.07.2009 13:14 22,0 C 18,1 C 3,8 UV-I 0,0 C 61 % 81 % 0 % 1021,9 hPa 0,0 l/m 2,2 km/h (1 Bft) 0 min 3,8 km/h (1 Bft)
25.07.2009 13:16 22,1 C 18,1 C 4,1 UV-I 0,0 C 61 % 81 % 0 % 1021,7 hPa 0,0 l/m 2,2 km/h (1 Bft) 0 min 3,1 km/h (1 Bft)
25.07.2009 13:18 22,1 C 18,2 C 4,1 UV-I 0,0 C 61 % 82 % 0 % 1021,7 hPa 0,0 l/m 2,2 km/h (1 Bft) 0 min 0,0 km/h (0 Bft)
25.07.2009 13:20 22,1 C 18,2 C 4,1 UV-I 0,0 C 61 % 82 % 0 % 1021,7 hPa 0,0 l/m 2,2 km/h (1 Bft) 0 min 4,1 km/h (1 Bft)
25.07.2009 13:22 22,1 C 18,2 C 3,1 UV-I 0,0 C 61 % 82 % 0 % 1021,7 hPa 0,0 l/m 1,9 km/h (1 Bft) 0 min 4,1 km/h (1 Bft)
25.07.2009 13:24 22,1 C 18,3 C 3,1 UV-I 0,0 C 61 % 82 % 0 % 1021,7 hPa 0,0 l/m 1,4 km/h (1 Bft) 0 min 0,0 km/h (0 Bft)
25.07.2009 13:26 22,1 C 18,3 C 1,5 UV-I 0,0 C 61 % 82 % 0 % 1021,7 hPa 0,0 l/m 1,2 km/h (1 Bft) 0 min 6,3 km/h (2 Bft)
25.07.2009 13:28 22,1 C 18,1 C 1,5 UV-I 0,0 C 61 % 82 % 0 % 1021,7 hPa 0,2 l/m 1,2 km/h (1 Bft) 0 min 6,3 km/h (2 Bft)
25.07.2009 13:30 22,2 C 18,1 C 1,5 UV-I 0,0 C 61 % 82 % 0 % 1021,7 hPa 0,1 l/m 1,2 km/h (1 Bft) 0 min 3,4 km/h (1 Bft)
25.07.2009 13:32 22,2 C 18,1 C 2,1 UV-I 0,0 C 61 % 83 % 0 % 1021,7 hPa 0,0 l/m 1,2 km/h (1 Bft) 0 min 7,9 km/h (2 Bft)
25.07.2009 13:34 22,2 C 18,1 C 2,1 UV-I 0,0 C 61 % 83 % 0 % 1021,7 hPa 0,1 l/m 1,4 km/h (1 Bft) 0 min 7,9 km/h (2 Bft)
25.07.2009 13:36 22,2 C 18,1 C 4,4 UV-I 0,0 C 62 % 83 % 0 % 1021,6 hPa 0,0 l/m 1,7 km/h (1 Bft) 0 min 6,7 km/h (2 Bft)
25.07.2009 13:38 22,2 C 18,3 C 4,4 UV-I 0,0 C 62 % 84 % 0 % 1021,6 hPa 0,0 l/m 1,4 km/h (1 Bft) 0 min 0,0 km/h (0 Bft)
25.07.2009 13:40 22,2 C 18,3 C 4,4 UV-I 0,1 C 62 % 84 % 3 % 1021,6 hPa 0,0 l/m 1,7 km/h (1 Bft) 0 min 6,0 km/h (2 Bft)
25.07.2009 13:42 22,2 C 18,5 C 7,7 UV-I 0,6 C 62 % 84 % 17 % 1021,6 hPa 0,0 l/m 1,7 km/h (1 Bft) 0 min 6,0 km/h (2 Bft)
25.07.2009 13:44 22,2 C 18,5 C 7,7 UV-I 1,6 C 62 % 84 % 46 % 1021,6 hPa 0,0 l/m 1,7 km/h (1 Bft) 0 min 7,5 km/h (2 Bft)
25.07.2009 13:46 22,2 C 18,7 C 7,6 UV-I 1,8 C 62 % 84 % 51 % 1021,6 hPa 0,0 l/m 1,7 km/h (1 Bft) 0 min 7,5 km/h (2 Bft)
25.07.2009 13:48 22,3 C 18,9 C 7,6 UV-I 2,3 C 62 % 84 % 66 % 1021,6 hPa 0,0 l/m 1,9 km/h (1 Bft) 0 min 16,1 km/h (3 Bft)
25.07.2009 13:50 22,3 C 18,9 C 7,6 UV-I 2,8 C 62 % 83 % 80 % 1021,6 hPa 0,0 l/m 2,4 km/h (1 Bft) 0 min 16,1 km/h (3 Bft)
25.07.2009 13:52 22,2 C 19,1 C 7,6 UV-I 3,0 C 62 % 83 % 86 % 1021,6 hPa 0,0 l/m 2,9 km/h (1 Bft) 2 min 9,6 km/h (2 Bft)
25.07.2009 13:54 22,2 C 19,1 C 7,6 UV-I 3,3 C 62 % 82 % 94 % 1021,6 hPa 0,0 l/m 3,4 km/h (1 Bft) 2 min 9,6 km/h (2 Bft)
25.07.2009 13:56 22,4 C 19,3 C 3,8 UV-I 3,0 C 62 % 81 % 86 % 1022,1 hPa 0,0 l/m 3,4 km/h (1 Bft) 2 min 4,1 km/h (1 Bft)
25.07.2009 13:58 22,4 C 19,2 C 3,8 UV-I 2,4 C 62 % 81 % 69 % 1022,1 hPa 0,0 l/m 3,8 km/h (1 Bft) 0 min 5,1 km/h (1 Bft)
25.07.2009 14:00 22,4 C 19,2 C 3,8 UV-I 1,5 C 62 % 80 % 43 % 1022,1 hPa 1,0 l/m 4,6 km/h (1 Bft) 0 min 5,1 km/h (1 Bft)
25.07.2009 14:02 22,4 C 18,9 C 0,3 UV-I 0,8 C 62 % 80 % 23 % 1022,1 hPa 0,0 l/m 4,8 km/h (1 Bft) 0 min 4,3 km/h (1 Bft)
25.07.2009 14:04 22,4 C 18,7 C 0,3 UV-I 0,0 C 62 % 79 % 0 % 1022,1 hPa 0,3 l/m 4,8 km/h (1 Bft) 0 min 7,5 km/h (2 Bft)
25.07.2009 14:06 22,4 C 18,5 C 0,5 UV-I 0,0 C 62 % 80 % 0 % 1022,1 hPa 0,0 l/m 5,8 km/h (2 Bft) 0 min 14,9 km/h (3 Bft)
25.07.2009 14:08 22,4 C 18,3 C 0,5 UV-I 0,0 C 62 % 79 % 0 % 1022,1 hPa 0,0 l/m 6,0 km/h (2 Bft) 0 min 14,9 km/h (3 Bft)
25.07.2009 14:10 22,4 C 18,1 C 0,5 UV-I 0,0 C 62 % 80 % 0 % 1022,1 hPa 0,1 l/m 4,6 km/h (1 Bft) 0 min 6,5 km/h (2 Bft)
25.07.2009 14:12 22,4 C 18,1 C 1,2 UV-I 0,0 C 62 % 81 % 0 % 1022,1 hPa 0,1 l/m 4,3 km/h (1 Bft) 0 min 2,9 km/h (1 Bft)
25.07.2009 14:14 22,4 C 18,0 C 1,2 UV-I 0,0 C 62 % 81 % 0 % 1022,1 hPa 0,0 l/m 3,6 km/h (1 Bft) 0 min 0,0 km/h (0 Bft)
25.07.2009 14:16 22,4 C 18,0 C 2,7 UV-I 0,0 C 62 % 81 % 0 % 1022,3 hPa 0,0 l/m 2,4 km/h (1 Bft) 0 min 0,0 km/h (0 Bft)
25.07.2009 14:18 22,4 C 17,9 C 2,7 UV-I 0,0 C 62 % 82 % 0 % 1022,3 hPa 0,0 l/m 1,7 km/h (1 Bft) 0 min 0,0 km/h (0 Bft)
25.07.2009 14:20 22,4 C 18,0 C 2,7 UV-I 0,0 C 62 % 83 % 0 % 1022,3 hPa 0,0 l/m 1,2 km/h (1 Bft) 0 min 2,6 km/h (1 Bft)
25.07.2009 14:22 22,4 C 18,1 C 4,5 UV-I 0,0 C 62 % 83 % 0 % 1022,3 hPa 0,0 l/m 1,0 km/h (0 Bft) 0 min 5,1 km/h (1 Bft)
25.07.2009 14:24 22,4 C 18,3 C 4,5 UV-I 0,0 C 63 % 84 % 0 % 1022,3 hPa 0,0 l/m 1,0 km/h (0 Bft) 0 min 8,4 km/h (2 Bft)
25.07.2009 14:26 22,5 C 18,3 C 6,8 UV-I 1,1 C 63 % 84 % 31 % 1022,3 hPa 0,0 l/m 1,4 km/h (1 Bft) 0 min 8,4 km/h (2 Bft)
25.07.2009 14:28 22,5 C 18,4 C 6,8 UV-I 1,9 C 63 % 85 % 54 % 1022,3 hPa 0,0 l/m 2,6 km/h (1 Bft) 0 min 10,3 km/h (2 Bft)
25.07.2009 14:32 22,5 C 18,7 C 7,9 UV-I 2,8 C 63 % 84 % 80 % 1022,3 hPa 0,0 l/m 4,3 km/h (1 Bft) 0 min 10,3 km/h (2 Bft)
25.07.2009 14:34 22,5 C 18,8 C 7,9 UV-I 3,3 C 63 % 85 % 94 % 1022,3 hPa 0,0 l/m 4,6 km/h (1 Bft) 2 min 7,9 km/h (2 Bft)
25.07.2009 14:36 22,6 C 19,0 C 7,1 UV-I 3,5 C 63 % 84 % 100 % 1022,6 hPa 0,0 l/m 4,8 km/h (1 Bft) 2 min 14,9 km/h (3 Bft)
25.07.2009 14:38 22,6 C 19,1 C 7,1 UV-I 3,7 C 63 % 84 % 100 % 1022,6 hPa 0,0 l/m 5,5 km/h (1 Bft) 2 min 14,9 km/h (3 Bft)
25.07.2009 14:40 22,6 C 19,3 C 7,1 UV-I 3,7 C 63 % 83 % 100 % 1022,6 hPa 0,0 l/m 5,8 km/h (2 Bft) 2 min 13,5 km/h (3 Bft)
25.07.2009 14:42 22,6 C 19,2 C 6,4 UV-I 3,7 C 64 % 82 % 100 % 1022,6 hPa 0,0 l/m 5,8 km/h (2 Bft) 2 min 13,5 km/h (3 Bft)
25.07.2009 14:44 22,6 C 19,3 C 6,4 UV-I 3,5 C 63 % 82 % 100 % 1022,6 hPa 0,0 l/m 6,0 km/h (2 Bft) 2 min 6,5 km/h (2 Bft)
25.07.2009 14:46 22,6 C 19,4 C 4,1 UV-I 3,1 C 64 % 81 % 89 % 1022,6 hPa 0,0 l/m 6,5 km/h (2 Bft) 2 min 15,9 km/h (3 Bft)
25.07.2009 14:48 22,7 C 19,5 C 4,1 UV-I 2,6 C 64 % 81 % 74 % 1022,6 hPa 0,0 l/m 6,3 km/h (2 Bft) 0 min 15,9 km/h (3 Bft)
25.07.2009 14:50 22,7 C 19,4 C 4,1 UV-I 2,7 C 64 % 81 % 77 % 1022,6 hPa 0,0 l/m 6,7 km/h (2 Bft) 0 min 15,2 km/h (3 Bft)
25.07.2009 14:52 22,7 C 19,6 C 7,2 UV-I 3,0 C 63 % 80 % 86 % 1022,6 hPa 0,0 l/m 6,0 km/h (2 Bft) 2 min 15,2 km/h (3 Bft)
25.07.2009 14:54 22,8 C 19,7 C 7,2 UV-I 3,5 C 63 % 80 % 100 % 1022,6 hPa 0,0 l/m 6,0 km/h (2 Bft) 2 min 7,2 km/h (2 Bft)
25.07.2009 14:56 22,8 C 19,7 C 4,3 UV-I 3,4 C 63 % 79 % 97 % 1022,5 hPa 0,0 l/m 6,0 km/h (2 Bft) 2 min 8,7 km/h (2 Bft)
25.07.2009 14:58 22,8 C 19,7 C 4,3 UV-I 3,0 C 63 % 78 % 86 % 1022,5 hPa 0,0 l/m 5,5 km/h (1 Bft) 2 min 8,7 km/h (2 Bft)
25.07.2009 15:00 22,8 C 19,7 C 4,3 UV-I 2,5 C 63 % 78 % 71 % 1022,5 hPa 0,0 l/m 5,1 km/h (1 Bft) 0 min 6,5 km/h (2 Bft)
25.07.2009 15:02 22,8 C 19,8 C 2,5 UV-I 2,1 C 63 % 77 % 60 % 1022,5 hPa 0,0 l/m 4,8 km/h (1 Bft) 0 min 7,9 km/h (2 Bft)
25.07.2009 15:04 22,8 C 19,7 C 2,5 UV-I 1,9 C 63 % 77 % 54 % 1022,5 hPa 0,0 l/m 4,8 km/h (1 Bft) 0 min 7,9 km/h (2 Bft)
25.07.2009 15:06 22,8 C 19,7 C 3,3 UV-I 1,6 C 63 % 77 % 46 % 1022,5 hPa 0,0 l/m 3,8 km/h (1 Bft) 0 min 0,0 km/h (0 Bft)
25.07.2009 15:08 22,9 C 19,8 C 3,3 UV-I 1,5 C 62 % 77 % 43 % 1022,5 hPa 0,0 l/m 3,4 km/h (1 Bft) 0 min 6,0 km/h (2 Bft)
25.07.2009 15:10 22,9 C 19,9 C 3,3 UV-I 1,5 C 62 % 75 % 43 % 1022,5 hPa 0,0 l/m 3,4 km/h (1 Bft) 0 min 10,8 km/h (2 Bft)
25.07.2009 15:12 22,9 C 19,9 C 3,9 UV-I 1,5 C 62 % 75 % 43 % 1022,5 hPa 0,0 l/m 3,8 km/h (1 Bft) 0 min 10,8 km/h (2 Bft)
25.07.2009 15:14 22,9 C 19,8 C 3,9 UV-I 1,6 C 62 % 75 % 46 % 1022,5 hPa 0,0 l/m 3,1 km/h (1 Bft) 0 min 5,3 km/h (1 Bft)
25.07.2009 15:16 23,0 C 20,0 C 5,2 UV-I 1,6 C 62 % 74 % 46 % 1022,4 hPa 0,0 l/m 3,8 km/h (1 Bft) 0 min 7,5 km/h (2 Bft)
25.07.2009 15:18 23,0 C 20,0 C 5,2 UV-I 2,1 C 62 % 73 % 60 % 1022,4 hPa 0,0 l/m 4,3 km/h (1 Bft) 0 min 7,5 km/h (2 Bft)
25.07.2009 15:20 23,0 C 20,1 C 5,2 UV-I 2,4 C 62 % 74 % 69 % 1022,4 hPa 0,0 l/m 4,3 km/h (1 Bft) 0 min 6,0 km/h (2 Bft)
25.07.2009 15:22 23,0 C 20,1 C 4,2 UV-I 2,5 C 62 % 74 % 71 % 1022,4 hPa 0,0 l/m 3,6 km/h (1 Bft) 0 min 6,0 km/h (2 Bft)
25.07.2009 15:24 23,0 C 20,2 C 4,2 UV-I 2,3 C 61 % 73 % 66 % 1022,4 hPa 0,0 l/m 3,6 km/h (1 Bft) 0 min 7,2 km/h (2 Bft)
25.07.2009 15:26 23,0 C 20,3 C 4,7 UV-I 2,3 C 61 % 74 % 66 % 1022,4 hPa 0,0 l/m 3,8 km/h (1 Bft) 0 min 8,2 km/h (2 Bft)
25.07.2009 15:28 23,0 C 20,3 C 4,7 UV-I 2,6 C 61 % 73 % 74 % 1022,4 hPa 0,0 l/m 4,1 km/h (1 Bft) 0 min 11,8 km/h (2 Bft)
25.07.2009 15:30 23,1 C 20,4 C 4,7 UV-I 2,9 C 61 % 72 % 83 % 1022,4 hPa 0,0 l/m 4,1 km/h (1 Bft) 2 min 11,8 km/h (2 Bft)
25.07.2009 15:32 23,1 C 20,5 C 6,0 UV-I 3,4 C 61 % 73 % 97 % 1022,4 hPa 0,0 l/m 4,3 km/h (1 Bft) 2 min 7,5 km/h (2 Bft)
25.07.2009 15:34 23,2 C 20,7 C 6,0 UV-I 3,4 C 61 % 73 % 97 % 1022,4 hPa 0,0 l/m 3,8 km/h (1 Bft) 2 min 4,1 km/h (1 Bft)
25.07.2009 15:36 23,2 C 20,6 C 4,8 UV-I 3,4 C 61 % 73 % 97 % 1022,4 hPa 0,0 l/m 3,6 km/h (1 Bft) 2 min 4,1 km/h (1 Bft)
25.07.2009 15:38 23,2 C 20,7 C 4,8 UV-I 3,2 C 61 % 71 % 91 % 1022,4 hPa 0,0 l/m 4,1 km/h (1 Bft) 2 min 9,1 km/h (2 Bft)
25.07.2009 15:40 23,2 C 20,8 C 4,8 UV-I 3,4 C 61 % 70 % 97 % 1022,4 hPa 0,0 l/m 4,1 km/h (1 Bft) 2 min 9,1 km/h (2 Bft)
25.07.2009 15:42 23,2 C 21,0 C 6,6 UV-I 3,5 C 60 % 71 % 100 % 1022,4 hPa 0,0 l/m 3,8 km/h (1 Bft) 2 min 6,0 km/h (2 Bft)
25.07.2009 15:44 23,3 C 21,1 C 6,6 UV-I 4,0 C 60 % 70 % 100 % 1022,4 hPa 0,0 l/m 4,8 km/h (1 Bft) 2 min 6,0 km/h (2 Bft)
25.07.2009 15:46 23,2 C 21,3 C 6,3 UV-I 4,1 C 60 % 70 % 100 % 1022,4 hPa 0,0 l/m 5,5 km/h (1 Bft) 2 min 5,5 km/h (1 Bft)
25.07.2009 15:48 23,2 C 21,3 C 6,3 UV-I 4,4 C 60 % 69 % 100 % 1022,4 hPa 0,0 l/m 6,3 km/h (2 Bft) 2 min 21,9 km/h (4 Bft)
25.07.2009 15:50 23,4 C 21,3 C 6,3 UV-I 4,5 C 60 % 66 % 100 % 1022,4 hPa 0,0 l/m 7,5 km/h (2 Bft) 2 min 21,9 km/h (4 Bft)
25.07.2009 15:52 23,4 C 21,3 C 4,5 UV-I 4,4 C 60 % 65 % 100 % 1022,4 hPa 0,0 l/m 7,9 km/h (2 Bft) 2 min 17,3 km/h (3 Bft)
25.07.2009 15:54 23,4 C 21,3 C 4,5 UV-I 3,4 C 59 % 66 % 97 % 1022,4 hPa 0,0 l/m 7,9 km/h (2 Bft) 2 min 17,3 km/h (3 Bft)
25.07.2009 15:56 23,4 C 21,2 C 2,1 UV-I 2,7 C 59 % 66 % 77 % 1022,7 hPa 0,0 l/m 7,9 km/h (2 Bft) 0 min 10,3 km/h (2 Bft)
25.07.2009 15:58 23,5 C 21,2 C 2,1 UV-I 2,1 C 59 % 67 % 60 % 1022,7 hPa 0,0 l/m 7,7 km/h (2 Bft) 0 min 10,3 km/h (2 Bft)
25.07.2009 16:00 23,5 C 21,2 C 2,1 UV-I 1,3 C 59 % 68 % 37 % 1022,7 hPa 0,0 l/m 6,0 km/h (2 Bft) 0 min 4,1 km/h (1 Bft)
25.07.2009 16:02 23,5 C 21,1 C 3,7 UV-I 0,9 C 59 % 69 % 26 % 1022,7 hPa 0,1 l/m 5,1 km/h (1 Bft) 0 min 3,8 km/h (1 Bft)
25.07.2009 16:04 23,5 C 20,9 C 3,7 UV-I 0,7 C 59 % 70 % 20 % 1022,7 hPa 0,0 l/m 4,3 km/h (1 Bft) 0 min 3,8 km/h (1 Bft)
25.07.2009 16:06 23,6 C 20,8 C 4,4 UV-I 0,6 C 59 % 71 % 17 % 1022,7 hPa 0,0 l/m 3,4 km/h (1 Bft) 0 min 2,6 km/h (1 Bft)
25.07.2009 16:10 23,6 C 20,9 C 4,4 UV-I 0,0 C 59 % 72 % 0 % 1022,7 hPa 0,0 l/m 1,4 km/h (1 Bft) 0 min 0,0 km/h (0 Bft)
25.07.2009 16:12 23,6 C 20,9 C 2,1 UV-I 0,0 C 59 % 71 % 0 % 1022,7 hPa 0,0 l/m 1,2 km/h (1 Bft) 0 min 3,1 km/h (1 Bft)
25.07.2009 16:14 23,6 C 20,7 C 2,1 UV-I 0,0 C 59 % 69 % 0 % 1022,7 hPa 0,0 l/m 1,7 km/h (1 Bft) 0 min 14,7 km/h (3 Bft)
25.07.2009 16:16 23,6 C 20,5 C 1,3 UV-I 0,0 C 59 % 70 % 0 % 1022,9 hPa 0,0 l/m 2,4 km/h (1 Bft) 0 min 14,7 km/h (3 Bft)
25.07.2009 16:18 23,6 C 20,4 C 1,3 UV-I 0,0 C 59 % 71 % 0 % 1022,9 hPa 0,2 l/m 2,9 km/h (1 Bft) 0 min 5,1 km/h (1 Bft)
25.07.2009 16:20 23,7 C 20,3 C 1,3 UV-I 0,0 C 58 % 72 % 0 % 1022,9 hPa 0,0 l/m 3,6 km/h (1 Bft) 0 min 6,7 km/h (2 Bft)
25.07.2009 16:22 23,7 C 20,3 C 2,6 UV-I 0,0 C 58 % 73 % 0 % 1022,9 hPa 0,0 l/m 4,1 km/h (1 Bft) 0 min 6,7 km/h (2 Bft)
25.07.2009 16:24 23,7 C 20,3 C 2,6 UV-I 0,0 C 58 % 74 % 0 % 1022,9 hPa 0,0 l/m 4,3 km/h (1 Bft) 0 min 7,5 km/h (2 Bft)
25.07.2009 16:26 23,7 C 20,5 C 5,9 UV-I 0,0 C 58 % 75 % 0 % 1022,9 hPa 0,0 l/m 3,4 km/h (1 Bft) 0 min 7,5 km/h (2 Bft)
25.07.2009 16:28 23,7 C 20,4 C 5,9 UV-I 0,1 C 59 % 75 % 3 % 1022,9 hPa 0,0 l/m 3,1 km/h (1 Bft) 0 min 4,6 km/h (1 Bft)
25.07.2009 16:30 23,7 C 20,5 C 5,9 UV-I 0,5 C 59 % 75 % 14 % 1022,9 hPa 0,0 l/m 2,6 km/h (1 Bft) 0 min 8,9 km/h (2 Bft)
25.07.2009 16:32 23,7 C 20,5 C 4,3 UV-I 0,6 C 59 % 73 % 17 % 1022,9 hPa 0,0 l/m 3,6 km/h (1 Bft) 0 min 8,9 km/h (2 Bft)
25.07.2009 16:34 23,8 C 20,4 C 4,3 UV-I 0,6 C 59 % 71 % 17 % 1022,9 hPa 0,0 l/m 4,6 km/h (1 Bft) 0 min 8,2 km/h (2 Bft)
25.07.2009 16:36 23,8 C 20,5 C 2,1 UV-I 0,3 C 59 % 71 % 9 % 1022,6 hPa 0,0 l/m 4,8 km/h (1 Bft) 0 min 8,2 km/h (2 Bft)
25.07.2009 16:38 23,7 C 20,4 C 2,1 UV-I 0,2 C 59 % 70 % 6 % 1022,6 hPa 0,0 l/m 5,3 km/h (1 Bft) 0 min 5,5 km/h (1 Bft)
25.07.2009 16:40 23,8 C 20,3 C 2,1 UV-I 0,1 C 59 % 69 % 3 % 1022,6 hPa 0,0 l/m 5,8 km/h (2 Bft) 0 min 5,1 km/h (1 Bft)
25.07.2009 16:42 23,8 C 20,3 C 1,6 UV-I 0,0 C 58 % 68 % 0 % 1022,6 hPa 0,0 l/m 5,1 km/h (1 Bft) 0 min 6,0 km/h (2 Bft)
25.07.2009 16:46 23,8 C 20,2 C 1,7 UV-I 0,0 C 58 % 67 % 0 % 1022,6 hPa 0,0 l/m 5,1 km/h (1 Bft) 0 min 8,4 km/h (2 Bft)
25.07.2009 16:48 23,8 C 20,3 C 1,7 UV-I 0,0 C 58 % 67 % 0 % 1022,6 hPa 0,0 l/m 5,3 km/h (1 Bft) 0 min 8,4 km/h (2 Bft)
25.07.2009 16:50 23,8 C 20,3 C 1,7 UV-I 0,0 C 58 % 68 % 0 % 1022,6 hPa 0,0 l/m 5,3 km/h (1 Bft) 0 min 9,6 km/h (2 Bft)
25.07.2009 16:52 23,8 C 20,3 C 2,1 UV-I 0,0 C 58 % 69 % 0 % 1022,6 hPa 0,0 l/m 5,1 km/h (1 Bft) 0 min 9,6 km/h (2 Bft)
25.07.2009 16:54 23,8 C 20,3 C 2,1 UV-I 0,0 C 58 % 70 % 0 % 1022,6 hPa 0,0 l/m 4,6 km/h (1 Bft) 0 min 6,0 km/h (2 Bft)
25.07.2009 16:56 23,7 C 20,2 C 2,1 UV-I 0,0 C 58 % 70 % 0 % 1022,9 hPa 0,0 l/m 4,1 km/h (1 Bft) 0 min 6,0 km/h (2 Bft)
25.07.2009 16:58 23,8 C 20,2 C 2,1 UV-I 0,0 C 57 % 70 % 0 % 1022,9 hPa 0,0 l/m 3,6 km/h (1 Bft) 0 min 6,7 km/h (2 Bft)
25.07.2009 17:00 23,8 C 20,3 C 2,1 UV-I 0,0 C 57 % 70 % 0 % 1022,9 hPa 0,0 l/m 3,4 km/h (1 Bft) 0 min 6,7 km/h (2 Bft)
25.07.2009 17:02 23,8 C 20,1 C 1,5 UV-I 0,0 C 57 % 70 % 0 % 1022,9 hPa 0,0 l/m 3,4 km/h (1 Bft) 0 min 5,8 km/h (2 Bft)
25.07.2009 17:04 23,8 C 20,1 C 1,5 UV-I 0,0 C 57 % 70 % 0 % 1022,9 hPa 0,0 l/m 3,8 km/h (1 Bft) 0 min 4,6 km/h (1 Bft)
25.07.2009 17:06 23,7 C 20,2 C 2,6 UV-I 0,2 C 57 % 71 % 6 % 1022,9 hPa 0,0 l/m 3,6 km/h (1 Bft) 0 min 4,6 km/h (1 Bft)
25.07.2009 17:08 23,7 C 20,2 C 2,6 UV-I 1,2 C 58 % 72 % 34 % 1022,9 hPa 0,0 l/m 4,1 km/h (1 Bft) 0 min 11,3 km/h (2 Bft)
25.07.2009 17:10 23,8 C 20,4 C 2,6 UV-I 1,7 C 58 % 70 % 49 % 1022,9 hPa 0,0 l/m 4,1 km/h (1 Bft) 0 min 11,3 km/h (2 Bft)
25.07.2009 17:12 23,8 C 20,5 C 3,1 UV-I 2,5 C 58 % 71 % 71 % 1022,9 hPa 0,0 l/m 3,8 km/h (1 Bft) 0 min 12,0 km/h (2 Bft)
25.07.2009 17:14 23,8 C 20,7 C 3,1 UV-I 3,0 C 58 % 71 % 86 % 1022,9 hPa 0,0 l/m 3,6 km/h (1 Bft) 2 min 12,0 km/h (2 Bft)
25.07.2009 17:16 23,8 C 20,9 C 2,9 UV-I 3,3 C 58 % 71 % 94 % 1022,1 hPa 0,0 l/m 3,4 km/h (1 Bft) 2 min 6,3 km/h (2 Bft)
25.07.2009 17:18 23,8 C 20,8 C 2,9 UV-I 3,9 C 58 % 70 % 100 % 1022,1 hPa 0,0 l/m 3,4 km/h (1 Bft) 2 min 6,3 km/h (2 Bft)
25.07.2009 17:20 23,8 C 20,9 C 2,9 UV-I 3,6 C 58 % 70 % 100 % 1022,1 hPa 0,0 l/m 3,1 km/h (1 Bft) 2 min 5,1 km/h (1 Bft)
25.07.2009 17:22 23,9 C 20,9 C 2,4 UV-I 3,0 C 58 % 68 % 86 % 1022,1 hPa 0,0 l/m 3,1 km/h (1 Bft) 2 min 5,1 km/h (1 Bft)
25.07.2009 17:24 23,9 C 20,8 C 2,4 UV-I 2,6 C 57 % 68 % 74 % 1022,1 hPa 0,0 l/m 2,9 km/h (1 Bft) 0 min 4,6 km/h (1 Bft)
25.07.2009 17:26 23,8 C 20,8 C 2,4 UV-I 2,1 C 57 % 69 % 60 % 1022,1 hPa 0,0 l/m 2,6 km/h (1 Bft) 0 min 0,0 km/h (0 Bft)
25.07.2009 17:28 23,9 C 20,8 C 2,4 UV-I 2,0 C 57 % 69 % 57 % 1022,1 hPa 0,0 l/m 2,2 km/h (1 Bft) 0 min 3,6 km/h (1 Bft)
25.07.2009 17:30 23,9 C 20,9 C 2,4 UV-I 2,4 C 57 % 68 % 69 % 1022,1 hPa 0,0 l/m 1,9 km/h (1 Bft) 0 min 8,7 km/h (2 Bft)
25.07.2009 17:32 23,9 C 21,0 C 2,6 UV-I 2,7 C 57 % 67 % 77 % 1022,1 hPa 0,0 l/m 2,6 km/h (1 Bft) 0 min 8,7 km/h (2 Bft)
25.07.2009 17:36 24,0 C 21,0 C 2,0 UV-I 2,2 C 57 % 63 % 63 % 1023,0 hPa 0,0 l/m 3,8 km/h (1 Bft) 0 min 8,9 km/h (2 Bft)
25.07.2009 17:38 24,0 C 21,0 C 2,0 UV-I 1,6 C 57 % 61 % 46 % 1023,0 hPa 0,0 l/m 5,1 km/h (1 Bft) 0 min 8,9 km/h (2 Bft)
25.07.2009 17:40 24,0 C 20,9 C 2,0 UV-I 1,4 C 56 % 62 % 40 % 1023,0 hPa 0,0 l/m 5,8 km/h (2 Bft) 0 min 7,5 km/h (2 Bft)
25.07.2009 17:42 24,0 C 20,8 C 2,2 UV-I 1,4 C 56 % 61 % 40 % 1023,0 hPa 0,0 l/m 5,5 km/h (1 Bft) 0 min 11,1 km/h (2 Bft)
25.07.2009 17:44 24,0 C 20,8 C 2,2 UV-I 1,4 C 56 % 62 % 40 % 1023,0 hPa 0,0 l/m 5,3 km/h (1 Bft) 0 min 11,1 km/h (2 Bft)
25.07.2009 17:46 24,0 C 20,9 C 2,5 UV-I 1,4 C 56 % 60 % 40 % 1023,0 hPa 0,0 l/m 5,8 km/h (2 Bft) 0 min 8,2 km/h (2 Bft)
25.07.2009 17:50 24,0 C 21,1 C 2,5 UV-I 1,7 C 55 % 58 % 49 % 1023,0 hPa 0,0 l/m 5,5 km/h (1 Bft) 0 min 8,2 km/h (2 Bft)
25.07.2009 17:52 24,0 C 21,1 C 2,6 UV-I 2,2 C 55 % 59 % 63 % 1023,0 hPa 0,0 l/m 5,5 km/h (1 Bft) 0 min 5,3 km/h (1 Bft)
25.07.2009 17:54 24,0 C 21,1 C 2,6 UV-I 2,6 C 55 % 60 % 74 % 1023,0 hPa 0,0 l/m 4,8 km/h (1 Bft) 0 min 0,0 km/h (0 Bft)
25.07.2009 17:56 24,0 C 21,3 C 2,4 UV-I 3,1 C 55 % 61 % 89 % 1022,9 hPa 0,0 l/m 3,8 km/h (1 Bft) 2 min 11,3 km/h (2 Bft)
25.07.2009 17:58 24,0 C 21,3 C 2,4 UV-I 3,6 C 55 % 58 % 100 % 1022,9 hPa 0,0 l/m 3,8 km/h (1 Bft) 2 min 15,2 km/h (3 Bft)
25.07.2009 18:00 24,0 C 21,3 C 2,4 UV-I 4,0 C 55 % 57 % 100 % 1022,9 hPa 0,0 l/m 3,6 km/h (1 Bft) 2 min 15,2 km/h (3 Bft)
25.07.2009 18:02 24,1 C 21,4 C 2,6 UV-I 4,0 C 55 % 56 % 100 % 1022,9 hPa 0,0 l/m 5,3 km/h (1 Bft) 2 min 10,6 km/h (2 Bft)
25.07.2009 18:04 24,1 C 21,3 C 2,6 UV-I 4,0 C 54 % 56 % 100 % 1022,9 hPa 0,0 l/m 5,5 km/h (1 Bft) 2 min 10,8 km/h (2 Bft)
25.07.2009 18:06 24,1 C 21,4 C 2,6 UV-I 3,9 C 54 % 56 % 100 % 1022,9 hPa 0,0 l/m 6,7 km/h (2 Bft) 2 min 10,8 km/h (2 Bft)
25.07.2009 18:08 24,1 C 21,4 C 2,6 UV-I 4,0 C 54 % 56 % 100 % 1022,9 hPa 0,0 l/m 7,5 km/h (2 Bft) 2 min 15,9 km/h (3 Bft)
25.07.2009 18:10 24,2 C 21,4 C 2,6 UV-I 4,0 C 54 % 56 % 100 % 1022,9 hPa 0,0 l/m 7,0 km/h (2 Bft) 2 min 15,9 km/h (3 Bft)
25.07.2009 18:12 24,2 C 21,3 C 2,6 UV-I 4,1 C 54 % 55 % 100 % 1022,9 hPa 0,0 l/m 6,0 km/h (2 Bft) 2 min 8,7 km/h (2 Bft)
25.07.2009 18:14 24,2 C 21,4 C 2,6 UV-I 4,1 C 54 % 56 % 100 % 1022,9 hPa 0,0 l/m 5,3 km/h (1 Bft) 2 min 8,7 km/h (2 Bft)
25.07.2009 18:16 24,2 C 21,4 C 2,1 UV-I 4,2 C 53 % 58 % 100 % 1023,0 hPa 0,0 l/m 4,3 km/h (1 Bft) 2 min 0,0 km/h (0 Bft)
25.07.2009 18:18 24,2 C 21,4 C 2,1 UV-I 4,6 C 53 % 58 % 100 % 1023,0 hPa 0,0 l/m 3,6 km/h (1 Bft) 2 min 0,0 km/h (0 Bft)
25.07.2009 18:20 24,2 C 21,5 C 2,1 UV-I 4,7 C 53 % 56 % 100 % 1023,0 hPa 0,0 l/m 2,9 km/h (1 Bft) 2 min 17,6 km/h (3 Bft)
25.07.2009 18:22 24,3 C 21,5 C 1,9 UV-I 4,7 C 53 % 54 % 100 % 1023,0 hPa 0,0 l/m 3,4 km/h (1 Bft) 2 min 17,6 km/h (3 Bft)
25.07.2009 18:24 24,3 C 21,4 C 1,9 UV-I 4,4 C 53 % 54 % 100 % 1023,0 hPa 0,0 l/m 3,6 km/h (1 Bft) 2 min 13,0 km/h (3 Bft)
25.07.2009 18:26 24,3 C 21,5 C 1,9 UV-I 3,7 C 53 % 54 % 100 % 1023,0 hPa 0,0 l/m 4,8 km/h (1 Bft) 2 min 9,9 km/h (2 Bft)
25.07.2009 18:28 24,3 C 21,4 C 1,9 UV-I 3,2 C 53 % 54 % 91 % 1023,0 hPa 0,0 l/m 5,8 km/h (2 Bft) 2 min 9,9 km/h (2 Bft)
25.07.2009 18:30 24,3 C 21,5 C 1,9 UV-I 2,4 C 53 % 54 % 69 % 1023,0 hPa 0,0 l/m 7,0 km/h (2 Bft) 0 min 9,4 km/h (2 Bft)
25.07.2009 18:32 24,3 C 21,3 C 1,8 UV-I 2,3 C 52 % 55 % 66 % 1023,0 hPa 0,0 l/m 6,5 km/h (2 Bft) 0 min 9,4 km/h (2 Bft)
25.07.2009 18:34 24,3 C 21,3 C 1,8 UV-I 2,2 C 52 % 53 % 63 % 1023,0 hPa 0,0 l/m 6,3 km/h (2 Bft) 0 min 8,7 km/h (2 Bft)
25.07.2009 18:36 24,3 C 21,3 C 1,6 UV-I 2,2 C 52 % 52 % 63 % 1023,5 hPa 0,0 l/m 6,7 km/h (2 Bft) 0 min 13,7 km/h (3 Bft)
25.07.2009 18:38 24,3 C 21,3 C 1,6 UV-I 2,4 C 52 % 53 % 69 % 1023,5 hPa 0,0 l/m 6,7 km/h (2 Bft) 0 min 13,7 km/h (3 Bft)
25.07.2009 18:40 24,3 C 21,3 C 1,6 UV-I 2,5 C 52 % 53 % 71 % 1023,5 hPa 0,0 l/m 7,2 km/h (2 Bft) 0 min 7,0 km/h (2 Bft)
25.07.2009 18:42 24,3 C 21,3 C 1,7 UV-I 2,6 C 52 % 53 % 74 % 1023,5 hPa 0,0 l/m 7,0 km/h (2 Bft) 0 min 5,3 km/h (1 Bft)
25.07.2009 18:44 24,3 C 21,2 C 1,7 UV-I 2,9 C 52 % 53 % 83 % 1023,5 hPa 0,0 l/m 7,5 km/h (2 Bft) 2 min 5,3 km/h (1 Bft)
25.07.2009 18:46 24,3 C 21,2 C 1,8 UV-I 3,0 C 52 % 53 % 86 % 1023,5 hPa 0,0 l/m 6,3 km/h (2 Bft) 2 min 8,2 km/h (2 Bft)
25.07.2009 18:48 24,3 C 21,2 C 1,8 UV-I 3,2 C 52 % 54 % 91 % 1023,5 hPa 0,0 l/m 5,1 km/h (1 Bft) 2 min 15,4 km/h (3 Bft)
25.07.2009 18:50 24,3 C 21,3 C 1,8 UV-I 3,1 C 52 % 52 % 89 % 1023,5 hPa 0,0 l/m 4,8 km/h (1 Bft) 2 min 15,4 km/h (3 Bft)
25.07.2009 18:52 24,3 C 21,3 C 1,5 UV-I 2,9 C 52 % 53 % 83 % 1023,5 hPa 0,0 l/m 5,5 km/h (1 Bft) 2 min 10,1 km/h (2 Bft)
25.07.2009 18:54 24,2 C 21,3 C 1,5 UV-I 2,4 C 52 % 52 % 69 % 1023,5 hPa 0,0 l/m 5,5 km/h (1 Bft) 0 min 10,1 km/h (2 Bft)
25.07.2009 18:56 24,2 C 21,2 C 1,6 UV-I 2,0 C 52 % 53 % 57 % 1023,8 hPa 0,0 l/m 5,8 km/h (2 Bft) 0 min 5,3 km/h (1 Bft)
25.07.2009 18:58 24,2 C 21,2 C 1,6 UV-I 1,5 C 52 % 52 % 43 % 1023,8 hPa 0,0 l/m 7,0 km/h (2 Bft) 0 min 5,3 km/h (1 Bft)
25.07.2009 19:00 24,2 C 21,1 C 1,6 UV-I 1,3 C 51 % 53 % 37 % 1023,8 hPa 0,0 l/m 6,7 km/h (2 Bft) 0 min 5,8 km/h (2 Bft)
25.07.2009 19:02 24,2 C 21,1 C 1,6 UV-I 1,0 C 51 % 54 % 29 % 1023,8 hPa 0,0 l/m 5,5 km/h (1 Bft) 0 min 8,7 km/h (2 Bft)
25.07.2009 19:04 24,1 C 21,1 C 1,6 UV-I 0,8 C 51 % 54 % 23 % 1023,8 hPa 0,0 l/m 4,8 km/h (1 Bft) 0 min 8,7 km/h (2 Bft)
25.07.2009 19:06 24,2 C 21,1 C 1,6 UV-I 0,6 C 51 % 54 % 17 % 1023,8 hPa 0,0 l/m 4,3 km/h (1 Bft) 0 min 9,4 km/h (2 Bft)
25.07.2009 19:08 24,2 C 21,1 C 1,6 UV-I 0,4 C 52 % 55 % 11 % 1023,8 hPa 0,0 l/m 3,6 km/h (1 Bft) 0 min 9,4 km/h (2 Bft)
25.07.2009 19:10 24,1 C 21,1 C 1,6 UV-I 0,2 C 51 % 55 % 6 % 1023,8 hPa 0,0 l/m 3,1 km/h (1 Bft) 0 min 8,9 km/h (2 Bft)
25.07.2009 19:12 24,1 C 21,1 C 1,4 UV-I 0,1 C 51 % 54 % 3 % 1023,8 hPa 0,0 l/m 3,6 km/h (1 Bft) 0 min 11,3 km/h (2 Bft)
25.07.2009 19:14 24,1 C 21,1 C 1,4 UV-I 0,0 C 51 % 54 % 0 % 1023,8 hPa 0,0 l/m 3,6 km/h (1 Bft) 0 min 11,3 km/h (2 Bft)
25.07.2009 19:16 24,1 C 21,0 C 1,5 UV-I 0,0 C 51 % 54 % 0 % 1023,8 hPa 0,0 l/m 4,3 km/h (1 Bft) 0 min 9,1 km/h (2 Bft)
25.07.2009 19:18 24,0 C 20,9 C 1,5 UV-I 0,0 C 51 % 53 % 0 % 1023,8 hPa 0,0 l/m 4,3 km/h (1 Bft) 0 min 6,5 km/h (2 Bft)
25.07.2009 19:20 24,0 C 20,9 C 1,5 UV-I 0,0 C 51 % 53 % 0 % 1023,8 hPa 0,0 l/m 4,6 km/h (1 Bft) 0 min 10,6 km/h (2 Bft)
25.07.2009 19:22 24,0 C 20,8 C 1,3 UV-I 0,0 C 51 % 53 % 0 % 1023,8 hPa 0,0 l/m 5,3 km/h (1 Bft) 0 min 10,6 km/h (2 Bft)
25.07.2009 19:24 24,0 C 20,8 C 1,3 UV-I 0,0 C 51 % 54 % 0 % 1023,8 hPa 0,0 l/m 4,8 km/h (1 Bft) 0 min 4,6 km/h (1 Bft)
25.07.2009 19:26 24,0 C 20,8 C 1,2 UV-I 0,0 C 51 % 53 % 0 % 1023,8 hPa 0,0 l/m 4,8 km/h (1 Bft) 0 min 7,9 km/h (2 Bft)
25.07.2009 19:28 24,0 C 20,8 C 1,2 UV-I 0,0 C 51 % 53 % 0 % 1023,8 hPa 0,0 l/m 5,1 km/h (1 Bft) 0 min 7,9 km/h (2 Bft)
25.07.2009 19:30 24,0 C 20,8 C 1,2 UV-I 0,0 C 51 % 53 % 0 % 1023,8 hPa 0,0 l/m 4,8 km/h (1 Bft) 0 min 6,5 km/h (2 Bft)
25.07.2009 19:32 24,0 C 20,8 C 1,2 UV-I 0,0 C 51 % 54 % 0 % 1023,8 hPa 0,0 l/m 4,1 km/h (1 Bft) 0 min 0,0 km/h (0 Bft)
25.07.2009 19:34 23,9 C 20,7 C 1,2 UV-I 0,0 C 51 % 54 % 0 % 1023,8 hPa 0,0 l/m 3,8 km/h (1 Bft) 0 min 9,4 km/h (2 Bft)
25.07.2009 19:36 23,9 C 20,6 C 1,0 UV-I 0,0 C 51 % 53 % 0 % 1023,8 hPa 0,0 l/m 4,1 km/h (1 Bft) 0 min 10,8 km/h (2 Bft)
25.07.2009 19:38 23,9 C 20,7 C 1,0 UV-I 0,0 C 51 % 53 % 0 % 1023,8 hPa 0,0 l/m 3,6 km/h (1 Bft) 0 min 10,8 km/h (2 Bft)
25.07.2009 19:40 23,9 C 20,7 C 1,0 UV-I 0,0 C 51 % 54 % 0 % 1023,8 hPa 0,0 l/m 3,4 km/h (1 Bft) 0 min 4,6 km/h (1 Bft)
25.07.2009 19:42 23,9 C 20,7 C 0,9 UV-I 0,0 C 51 % 54 % 0 % 1023,8 hPa 0,0 l/m 3,8 km/h (1 Bft) 0 min 4,6 km/h (1 Bft)
25.07.2009 19:44 23,8 C 20,7 C 0,9 UV-I 0,0 C 51 % 55 % 0 % 1023,8 hPa 0,0 l/m 3,8 km/h (1 Bft) 0 min 3,4 km/h (1 Bft)
25.07.2009 19:46 23,8 C 20,7 C 0,9 UV-I 0,0 C 51 % 55 % 0 % 1023,8 hPa 0,0 l/m 3,6 km/h (1 Bft) 0 min 7,2 km/h (2 Bft)
25.07.2009 19:48 23,8 C 20,5 C 0,9 UV-I 0,0 C 51 % 55 % 0 % 1023,8 hPa 0,0 l/m 2,9 km/h (1 Bft) 0 min 0,0 km/h (0 Bft)
25.07.2009 19:50 23,8 C 20,5 C 0,9 UV-I 0,0 C 51 % 56 % 0 % 1023,8 hPa 0,0 l/m 2,6 km/h (1 Bft) 0 min 3,4 km/h (1 Bft)
25.07.2009 19:52 23,8 C 20,5 C 0,8 UV-I 0,0 C 51 % 56 % 0 % 1023,8 hPa 0,0 l/m 2,2 km/h (1 Bft) 0 min 3,4 km/h (1 Bft)
25.07.2009 19:54 23,8 C 20,5 C 0,8 UV-I 0,0 C 51 % 56 % 0 % 1023,8 hPa 0,0 l/m 2,2 km/h (1 Bft) 0 min 3,6 km/h (1 Bft)
25.07.2009 19:56 23,8 C 20,4 C 0,8 UV-I 0,0 C 51 % 57 % 0 % 1023,8 hPa 0,0 l/m 3,1 km/h (1 Bft) 0 min 3,6 km/h (1 Bft)
25.07.2009 19:58 23,7 C 20,4 C 0,8 UV-I 0,0 C 51 % 57 % 0 % 1023,8 hPa 0,0 l/m 3,4 km/h (1 Bft) 0 min 3,6 km/h (1 Bft)
25.07.2009 20:00 23,7 C 20,4 C 0,8 UV-I 0,0 C 51 % 57 % 0 % 1023,8 hPa 0,0 l/m 3,6 km/h (1 Bft) 0 min 5,8 km/h (2 Bft)
25.07.2009 20:04 23,7 C 20,3 C 0,8 UV-I 0,0 C 51 % 58 % 0 % 1023,8 hPa 0,0 l/m 3,8 km/h (1 Bft) 0 min 5,8 km/h (2 Bft)
25.07.2009 20:06 23,7 C 20,3 C 0,6 UV-I 0,0 C 51 % 58 % 0 % 1023,8 hPa 0,0 l/m 3,4 km/h (1 Bft) 0 min 4,3 km/h (1 Bft)
25.07.2009 20:08 23,6 C 20,3 C 0,6 UV-I 0,0 C 51 % 59 % 0 % 1023,8 hPa 0,0 l/m 2,9 km/h (1 Bft) 0 min 2,9 km/h (1 Bft)
25.07.2009 20:10 23,6 C 20,3 C 0,6 UV-I 0,0 C 51 % 59 % 0 % 1023,8 hPa 0,0 l/m 2,6 km/h (1 Bft) 0 min 2,9 km/h (1 Bft)
25.07.2009 20:12 23,6 C 20,3 C 0,6 UV-I 0,0 C 51 % 59 % 0 % 1023,8 hPa 0,0 l/m 1,9 km/h (1 Bft) 0 min 3,4 km/h (1 Bft)
25.07.2009 20:14 23,6 C 20,1 C 0,6 UV-I 0,0 C 52 % 60 % 0 % 1023,8 hPa 0,0 l/m 1,9 km/h (1 Bft) 0 min 3,4 km/h (1 Bft)
25.07.2009 20:16 23,6 C 20,1 C 0,6 UV-I 0,0 C 51 % 60 % 0 % 1024,0 hPa 0,0 l/m 1,2 km/h (1 Bft) 0 min 0,0 km/h (0 Bft)
25.07.2009 20:18 23,6 C 20,0 C 0,6 UV-I 0,0 C 52 % 60 % 0 % 1024,0 hPa 0,0 l/m 1,4 km/h (1 Bft) 0 min 6,0 km/h (2 Bft)
25.07.2009 20:22 23,6 C 20,0 C 0,5 UV-I 0,0 C 52 % 60 % 0 % 1024,0 hPa 0,0 l/m 1,4 km/h (1 Bft) 0 min 6,0 km/h (2 Bft)
25.07.2009 20:24 23,6 C 19,9 C 0,5 UV-I 0,0 C 52 % 61 % 0 % 1024,0 hPa 0,0 l/m 1,4 km/h (1 Bft) 0 min 3,4 km/h (1 Bft)
25.07.2009 20:26 23,6 C 19,9 C 0,3 UV-I 0,0 C 52 % 60 % 0 % 1024,0 hPa 0,0 l/m 1,7 km/h (1 Bft) 0 min 3,4 km/h (1 Bft)
25.07.2009 20:28 23,5 C 19,9 C 0,3 UV-I 0,0 C 52 % 61 % 0 % 1024,0 hPa 0,0 l/m 1,2 km/h (1 Bft) 0 min 2,4 km/h (1 Bft)
25.07.2009 20:30 23,5 C 19,9 C 0,3 UV-I 0,0 C 52 % 61 % 0 % 1024,0 hPa 0,0 l/m 0,7 km/h (0 Bft) 0 min 2,6 km/h (1 Bft)
25.07.2009 20:32 23,5 C 19,7 C 0,3 UV-I 0,0 C 52 % 62 % 0 % 1024,0 hPa 0,0 l/m 0,7 km/h (0 Bft) 0 min 2,6 km/h (1 Bft)
25.07.2009 20:36 23,5 C 19,7 C 0,1 UV-I 0,0 C 52 % 61 % 0 % 1023,9 hPa 0,0 l/m 1,2 km/h (1 Bft) 0 min 4,8 km/h (1 Bft)
25.07.2009 20:38 23,5 C 19,7 C 0,1 UV-I 0,0 C 52 % 61 % 0 % 1023,9 hPa 0,0 l/m 1,2 km/h (1 Bft) 0 min 4,3 km/h (1 Bft)
25.07.2009 20:40 23,5 C 19,7 C 0,1 UV-I 0,0 C 52 % 61 % 0 % 1023,9 hPa 0,0 l/m 1,4 km/h (1 Bft) 0 min 4,3 km/h (1 Bft)
25.07.2009 20:42 23,5 C 19,6 C 0,2 UV-I 0,0 C 52 % 61 % 0 % 1023,9 hPa 0,0 l/m 1,7 km/h (1 Bft) 0 min 4,1 km/h (1 Bft)
25.07.2009 20:44 23,4 C 19,5 C 0,2 UV-I 0,0 C 52 % 61 % 0 % 1023,9 hPa 0,0 l/m 1,9 km/h (1 Bft) 0 min 2,4 km/h (1 Bft)
25.07.2009 20:46 23,4 C 19,5 C 0,0 UV-I 0,0 C 52 % 61 % 0 % 1023,9 hPa 0,0 l/m 1,4 km/h (1 Bft) 0 min 0,0 km/h (0 Bft)
25.07.2009 20:48 23,4 C 19,4 C 0,0 UV-I 0,0 C 52 % 61 % 0 % 1023,9 hPa 0,0 l/m 1,0 km/h (0 Bft) 0 min 0,0 km/h (0 Bft)
25.07.2009 20:50 23,4 C 19,5 C 0,0 UV-I 0,0 C 52 % 61 % 0 % 1023,9 hPa 0,0 l/m 1,0 km/h (0 Bft) 0 min 0,0 km/h (0 Bft)
25.07.2009 20:52 23,4 C 19,3 C 0,0 UV-I 0,0 C 52 % 61 % 0 % 1023,9 hPa 0,0 l/m 0,7 km/h (0 Bft) 0 min 0,0 km/h (0 Bft)
25.07.2009 20:54 23,4 C 19,3 C 0,0 UV-I 0,0 C 52 % 62 % 0 % 1023,9 hPa 0,0 l/m 0,2 km/h (0 Bft) 0 min 0,0 km/h (0 Bft)
25.07.2009 20:56 23,4 C 19,2 C 0,1 UV-I 0,0 C 52 % 62 % 0 % 1024,4 hPa 0,0 l/m 0,2 km/h (0 Bft) 0 min 0,0 km/h (0 Bft)
25.07.2009 20:58 23,4 C 19,2 C 0,1 UV-I 0,0 C 52 % 62 % 0 % 1024,4 hPa 0,0 l/m 0,5 km/h (0 Bft) 0 min 0,0 km/h (0 Bft)
25.07.2009 21:00 23,2 C 19,1 C 0,1 UV-I 0,0 C 52 % 61 % 0 % 1024,4 hPa 0,0 l/m 0,5 km/h (0 Bft) 0 min 4,6 km/h (1 Bft)
25.07.2009 21:02 23,2 C 19,0 C 0,0 UV-I 0,0 C 52 % 61 % 0 % 1024,4 hPa 0,0 l/m 1,0 km/h (0 Bft) 0 min 4,6 km/h (1 Bft)
25.07.2009 21:04 23,2 C 19,1 C 0,0 UV-I 0,0 C 53 % 62 % 0 % 1024,4 hPa 0,0 l/m 1,0 km/h (0 Bft) 0 min 3,4 km/h (1 Bft)
25.07.2009 21:06 23,2 C 18,9 C 0,0 UV-I 0,0 C 53 % 61 % 0 % 1024,4 hPa 0,0 l/m 1,0 km/h (0 Bft) 0 min 0,0 km/h (0 Bft)
25.07.2009 21:08 23,3 C 18,9 C 0,0 UV-I 0,0 C 53 % 62 % 0 % 1024,4 hPa 0,0 l/m 0,7 km/h (0 Bft) 0 min 0,0 km/h (0 Bft)
25.07.2009 21:10 23,3 C 18,8 C 0,0 UV-I 0,0 C 53 % 62 % 0 % 1024,4 hPa 0,0 l/m 0,5 km/h (0 Bft) 0 min 0,0 km/h (0 Bft)
25.07.2009 21:12 23,2 C 18,8 C 0,0 UV-I 0,0 C 53 % 63 % 0 % 1024,4 hPa 0,0 l/m 0,2 km/h (0 Bft) 0 min 0,0 km/h (0 Bft)
25.07.2009 21:14 23,2 C 18,7 C 0,0 UV-I 0,0 C 53 % 62 % 0 % 1024,4 hPa 0,0 l/m 0,0 km/h (0 Bft) 0 min 0,0 km/h (0 Bft)
25.07.2009 21:16 23,2 C 18,6 C 0,0 UV-I 0,0 C 53 % 62 % 0 % 1024,2 hPa 0,0 l/m 0,0 km/h (0 Bft) 0 min 0,0 km/h (0 Bft)
25.07.2009 21:18 23,2 C 18,6 C 0,0 UV-I 0,0 C 53 % 63 % 0 % 1024,2 hPa 0,0 l/m 0,0 km/h (0 Bft) 0 min 0,0 km/h (0 Bft)
25.07.2009 21:20 23,2 C 18,5 C 0,0 UV-I 0,0 C 53 % 63 % 0 % 1024,2 hPa 0,0 l/m 0,0 km/h (0 Bft) 0 min 0,0 km/h (0 Bft)
25.07.2009 21:22 23,2 C 18,5 C 0,0 UV-I 0,0 C 53 % 63 % 0 % 1024,2 hPa 0,0 l/m 0,0 km/h (0 Bft) 0 min 0,0 km/h (0 Bft)
25.07.2009 21:26 23,2 C 18,3 C 0,0 UV-I 0,0 C 53 % 64 % 0 % 1024,2 hPa 0,0 l/m 0,0 km/h (0 Bft) 0 min 0,0 km/h (0 Bft)
25.07.2009 21:28 23,1 C 18,3 C 0,0 UV-I 0,0 C 53 % 64 % 0 % 1024,2 hPa 0,0 l/m 0,0 km/h (0 Bft) 0 min 0,0 km/h (0 Bft)
25.07.2009 21:32 23,1 C 18,2 C 0,0 UV-I 0,0 C 53 % 65 % 0 % 1024,2 hPa 0,0 l/m 0,0 km/h (0 Bft) 0 min 0,0 km/h (0 Bft)
25.07.2009 21:34 23,1 C 18,0 C 0,0 UV-I 0,0 C 53 % 65 % 0 % 1024,2 hPa 0,0 l/m 0,0 km/h (0 Bft) 0 min 0,0 km/h (0 Bft)
25.07.2009 21:36 23,0 C 18,0 C 0,0 UV-I 0,0 C 53 % 65 % 0 % 1024,4 hPa 0,0 l/m 0,0 km/h (0 Bft) 0 min 0,0 km/h (0 Bft)
25.07.2009 21:38 23,0 C 18,0 C 0,0 UV-I 0,0 C 53 % 65 % 0 % 1024,4 hPa 0,0 l/m 0,0 km/h (0 Bft) 0 min 0,0 km/h (0 Bft)
25.07.2009 21:40 23,0 C 17,9 C 0,0 UV-I 0,0 C 53 % 65 % 0 % 1024,4 hPa 0,0 l/m 0,0 km/h (0 Bft) 0 min 0,0 km/h (0 Bft)
25.07.2009 21:42 23,0 C 17,9 C 0,0 UV-I 0,0 C 53 % 66 % 0 % 1024,4 hPa 0,0 l/m 0,0 km/h (0 Bft) 0 min 0,0 km/h (0 Bft)
25.07.2009 21:46 23,0 C 17,7 C 0,0 UV-I 0,0 C 53 % 66 % 0 % 1024,4 hPa 0,0 l/m 0,0 km/h (0 Bft) 0 min 0,0 km/h (0 Bft)
25.07.2009 21:48 22,9 C 17,6 C 0,0 UV-I 0,0 C 53 % 66 % 0 % 1024,4 hPa 0,0 l/m 0,0 km/h (0 Bft) 0 min 0,0 km/h (0 Bft)
25.07.2009 21:50 22,9 C 17,6 C 0,0 UV-I 0,0 C 53 % 66 % 0 % 1024,4 hPa 0,0 l/m 0,0 km/h (0 Bft) 0 min 0,0 km/h (0 Bft)
25.07.2009 21:52 22,9 C 17,5 C 0,0 UV-I 0,0 C 53 % 67 % 0 % 1024,4 hPa 0,0 l/m 0,0 km/h (0 Bft) 0 min 0,0 km/h (0 Bft)
25.07.2009 21:54 22,9 C 17,4 C 0,0 UV-I 0,0 C 53 % 67 % 0 % 1024,4 hPa 0,0 l/m 0,0 km/h (0 Bft) 0 min 0,0 km/h (0 Bft)
25.07.2009 21:56 22,8 C 17,5 C 0,0 UV-I 0,0 C 53 % 67 % 0 % 1024,6 hPa 0,0 l/m 0,0 km/h (0 Bft) 0 min 0,0 km/h (0 Bft)
25.07.2009 21:58 22,8 C 17,4 C 0,0 UV-I 0,0 C 53 % 68 % 0 % 1024,6 hPa 0,0 l/m 0,0 km/h (0 Bft) 0 min 0,0 km/h (0 Bft)
25.07.2009 22:00 22,8 C 17,2 C 0,0 UV-I 0,0 C 53 % 68 % 0 % 1024,6 hPa 0,0 l/m 0,0 km/h (0 Bft) 0 min 0,0 km/h (0 Bft)
25.07.2009 22:02 22,8 C 17,2 C 0,0 UV-I 0,0 C 53 % 69 % 0 % 1024,6 hPa 0,0 l/m 0,0 km/h (0 Bft) 0 min 0,0 km/h (0 Bft)
25.07.2009 22:04 22,8 C 17,1 C 0,0 UV-I 0,0 C 53 % 69 % 0 % 1024,6 hPa 0,0 l/m 0,0 km/h (0 Bft) 0 min 0,0 km/h (0 Bft)
25.07.2009 22:06 22,8 C 17,1 C 0,0 UV-I 0,0 C 53 % 69 % 0 % 1024,6 hPa 0,0 l/m 0,0 km/h (0 Bft) 0 min 0,0 km/h (0 Bft)
25.07.2009 22:08 22,8 C 17,1 C 0,0 UV-I 0,0 C 53 % 70 % 0 % 1024,6 hPa 0,0 l/m 0,0 km/h (0 Bft) 0 min 0,0 km/h (0 Bft)
25.07.2009 22:10 22,7 C 16,9 C 0,0 UV-I 0,0 C 53 % 71 % 0 % 1024,6 hPa 0,0 l/m 0,0 km/h (0 Bft) 0 min 0,0 km/h (0 Bft)
25.07.2009 22:12 22,7 C 16,9 C 0,0 UV-I 0,0 C 53 % 71 % 0 % 1024,6 hPa 0,0 l/m 0,0 km/h (0 Bft) 0 min 0,0 km/h (0 Bft)
25.07.2009 22:14 22,7 C 16,8 C 0,0 UV-I 0,0 C 54 % 71 % 0 % 1024,6 hPa 0,0 l/m 0,0 km/h (0 Bft) 0 min 0,0 km/h (0 Bft)
25.07.2009 22:16 22,7 C 16,7 C 0,0 UV-I 0,0 C 54 % 72 % 0 % 1024,6 hPa 0,0 l/m 0,0 km/h (0 Bft) 0 min 0,0 km/h (0 Bft)
25.07.2009 22:18 22,7 C 16,6 C 0,0 UV-I 0,0 C 54 % 72 % 0 % 1024,6 hPa 0,0 l/m 0,0 km/h (0 Bft) 0 min 0,0 km/h (0 Bft)
25.07.2009 22:20 22,6 C 16,6 C 0,0 UV-I 0,0 C 54 % 72 % 0 % 1024,6 hPa 0,0 l/m 0,0 km/h (0 Bft) 0 min 0,0 km/h (0 Bft)
25.07.2009 22:22 22,6 C 16,5 C 0,0 UV-I 0,0 C 54 % 72 % 0 % 1024,6 hPa 0,0 l/m 0,0 km/h (0 Bft) 0 min 0,0 km/h (0 Bft)
25.07.2009 22:24 22,6 C 16,4 C 0,0 UV-I 0,0 C 54 % 72 % 0 % 1024,6 hPa 0,0 l/m 0,0 km/h (0 Bft) 0 min 0,0 km/h (0 Bft)
25.07.2009 22:26 22,6 C 16,5 C 0,0 UV-I 0,0 C 54 % 73 % 0 % 1024,6 hPa 0,0 l/m 0,0 km/h (0 Bft) 0 min 0,0 km/h (0 Bft)
25.07.2009 22:28 22,5 C 16,3 C 0,0 UV-I 0,0 C 54 % 73 % 0 % 1024,6 hPa 0,0 l/m 0,0 km/h (0 Bft) 0 min 0,0 km/h (0 Bft)
25.07.2009 22:30 22,5 C 16,2 C 0,0 UV-I 0,0 C 54 % 73 % 0 % 1024,6 hPa 0,0 l/m 0,0 km/h (0 Bft) 0 min 0,0 km/h (0 Bft)
25.07.2009 22:32 22,5 C 16,3 C 0,0 UV-I 0,0 C 54 % 74 % 0 % 1024,6 hPa 0,0 l/m 0,0 km/h (0 Bft) 0 min 0,0 km/h (0 Bft)
25.07.2009 22:34 22,5 C 16,1 C 0,0 UV-I 0,0 C 54 % 74 % 0 % 1024,6 hPa 0,0 l/m 0,0 km/h (0 Bft) 0 min 0,0 km/h (0 Bft)
25.07.2009 22:36 22,5 C 16,1 C 0,0 UV-I 0,0 C 54 % 74 % 0 % 1024,6 hPa 0,0 l/m 0,0 km/h (0 Bft) 0 min 0,0 km/h (0 Bft)
25.07.2009 22:38 22,4 C 16,1 C 0,0 UV-I 0,0 C 55 % 74 % 0 % 1024,6 hPa 0,0 l/m 0,0 km/h (0 Bft) 0 min 0,0 km/h (0 Bft)
25.07.2009 22:40 22,4 C 16,0 C 0,0 UV-I 0,0 C 55 % 74 % 0 % 1024,6 hPa 0,0 l/m 0,0 km/h (0 Bft) 0 min 0,0 km/h (0 Bft)
25.07.2009 22:42 22,4 C 15,9 C 0,0 UV-I 0,0 C 55 % 75 % 0 % 1024,6 hPa 0,0 l/m 0,0 km/h (0 Bft) 0 min 0,0 km/h (0 Bft)
25.07.2009 22:44 22,4 C 15,8 C 0,0 UV-I 0,0 C 55 % 75 % 0 % 1024,6 hPa 0,0 l/m 0,0 km/h (0 Bft) 0 min 0,0 km/h (0 Bft)
25.07.2009 22:46 22,4 C 15,9 C 0,0 UV-I 0,0 C 55 % 75 % 0 % 1024,6 hPa 0,0 l/m 0,0 km/h (0 Bft) 0 min 0,0 km/h (0 Bft)
25.07.2009 22:48 22,4 C 15,7 C 0,0 UV-I 0,0 C 55 % 76 % 0 % 1024,6 hPa 0,0 l/m 0,0 km/h (0 Bft) 0 min 0,0 km/h (0 Bft)
25.07.2009 22:50 22,4 C 15,6 C 0,0 UV-I 0,0 C 55 % 76 % 0 % 1024,6 hPa 0,0 l/m 0,0 km/h (0 Bft) 0 min 0,0 km/h (0 Bft)
25.07.2009 22:52 22,4 C 15,6 C 0,0 UV-I 0,0 C 55 % 76 % 0 % 1024,6 hPa 0,0 l/m 0,0 km/h (0 Bft) 0 min 0,0 km/h (0 Bft)
25.07.2009 22:54 22,4 C 15,5 C 0,0 UV-I 0,0 C 55 % 76 % 0 % 1024,6 hPa 0,0 l/m 0,0 km/h (0 Bft) 0 min 0,0 km/h (0 Bft)
25.07.2009 22:56 22,2 C 15,5 C 0,0 UV-I 0,0 C 55 % 77 % 0 % 1024,7 hPa 0,0 l/m 0,0 km/h (0 Bft) 0 min 0,0 km/h (0 Bft)
25.07.2009 22:58 22,2 C 15,5 C 0,0 UV-I 0,0 C 55 % 77 % 0 % 1024,7 hPa 0,0 l/m 0,0 km/h (0 Bft) 0 min 0,0 km/h (0 Bft)
25.07.2009 23:00 22,3 C 15,3 C 0,0 UV-I 0,0 C 55 % 77 % 0 % 1024,7 hPa 0,0 l/m 0,0 km/h (0 Bft) 0 min 0,0 km/h (0 Bft)
25.07.2009 23:02 22,3 C 15,3 C 0,0 UV-I 0,0 C 55 % 77 % 0 % 1024,7 hPa 0,0 l/m 0,0 km/h (0 Bft) 0 min 0,0 km/h (0 Bft)
25.07.2009 23:04 22,3 C 15,2 C 0,0 UV-I 0,0 C 55 % 78 % 0 % 1024,7 hPa 0,0 l/m 0,0 km/h (0 Bft) 0 min 0,0 km/h (0 Bft)
25.07.2009 23:06 22,2 C 15,2 C 0,0 UV-I 0,0 C 55 % 78 % 0 % 1024,7 hPa 0,0 l/m 0,0 km/h (0 Bft) 0 min 0,0 km/h (0 Bft)
25.07.2009 23:08 22,2 C 15,1 C 0,0 UV-I 0,0 C 56 % 78 % 0 % 1024,7 hPa 0,0 l/m 0,0 km/h (0 Bft) 0 min 0,0 km/h (0 Bft)
25.07.2009 23:10 22,2 C 15,1 C 0,0 UV-I 0,0 C 55 % 78 % 0 % 1024,7 hPa 0,0 l/m 0,0 km/h (0 Bft) 0 min 0,0 km/h (0 Bft)
25.07.2009 23:12 22,2 C 15,0 C 0,0 UV-I 0,0 C 56 % 78 % 0 % 1024,7 hPa 0,0 l/m 0,0 km/h (0 Bft) 0 min 0,0 km/h (0 Bft)
25.07.2009 23:14 22,2 C 15,0 C 0,0 UV-I 0,0 C 56 % 78 % 0 % 1024,7 hPa 0,0 l/m 0,0 km/h (0 Bft) 0 min 0,0 km/h (0 Bft)
25.07.2009 23:16 22,1 C 14,9 C 0,0 UV-I 0,0 C 56 % 79 % 0 % 1024,8 hPa 0,0 l/m 0,0 km/h (0 Bft) 0 min 0,0 km/h (0 Bft)
25.07.2009 23:18 22,1 C 14,8 C 0,0 UV-I 0,0 C 56 % 79 % 0 % 1024,8 hPa 0,0 l/m 0,0 km/h (0 Bft) 0 min 0,0 km/h (0 Bft)
25.07.2009 23:20 22,1 C 14,9 C 0,0 UV-I 0,0 C 56 % 79 % 0 % 1024,8 hPa 0,0 l/m 0,0 km/h (0 Bft) 0 min 0,0 km/h (0 Bft)
25.07.2009 23:22 22,1 C 14,8 C 0,0 UV-I 0,0 C 56 % 79 % 0 % 1024,8 hPa 0,0 l/m 0,0 km/h (0 Bft) 0 min 0,0 km/h (0 Bft)
25.07.2009 23:24 22,1 C 14,7 C 0,0 UV-I 0,0 C 56 % 79 % 0 % 1024,8 hPa 0,0 l/m 0,0 km/h (0 Bft) 0 min 0,0 km/h (0 Bft)
25.07.2009 23:26 22,1 C 14,7 C 0,0 UV-I 0,0 C 56 % 80 % 0 % 1024,8 hPa 0,0 l/m 0,0 km/h (0 Bft) 0 min 0,0 km/h (0 Bft)
25.07.2009 23:28 22,0 C 14,7 C 0,0 UV-I 0,0 C 56 % 80 % 0 % 1024,8 hPa 0,0 l/m 0,0 km/h (0 Bft) 0 min 0,0 km/h (0 Bft)
25.07.2009 23:30 22,0 C 14,5 C 0,0 UV-I 0,0 C 56 % 80 % 0 % 1024,8 hPa 0,0 l/m 0,0 km/h (0 Bft) 0 min 0,0 km/h (0 Bft)
25.07.2009 23:32 22,0 C 14,5 C 0,0 UV-I 0,0 C 56 % 80 % 0 % 1024,8 hPa 0,0 l/m 0,0 km/h (0 Bft) 0 min 0,0 km/h (0 Bft)
25.07.2009 23:34 22,0 C 14,4 C 0,0 UV-I 0,0 C 56 % 80 % 0 % 1024,8 hPa 0,0 l/m 0,0 km/h (0 Bft) 0 min 0,0 km/h (0 Bft)
25.07.2009 23:36 22,0 C 14,4 C 0,0 UV-I 0,0 C 56 % 80 % 0 % 1024,8 hPa 0,0 l/m 0,0 km/h (0 Bft) 0 min 0,0 km/h (0 Bft)
25.07.2009 23:38 22,0 C 14,4 C 0,0 UV-I 0,0 C 56 % 81 % 0 % 1024,8 hPa 0,0 l/m 0,0 km/h (0 Bft) 0 min 0,0 km/h (0 Bft)
25.07.2009 23:40 22,0 C 14,3 C 0,0 UV-I 0,0 C 56 % 81 % 0 % 1024,8 hPa 0,0 l/m 0,0 km/h (0 Bft) 0 min 0,0 km/h (0 Bft)
25.07.2009 23:42 22,0 C 14,3 C 0,0 UV-I 0,0 C 56 % 81 % 0 % 1024,8 hPa 0,0 l/m 0,0 km/h (0 Bft) 0 min 0,0 km/h (0 Bft)
25.07.2009 23:46 21,9 C 14,3 C 0,0 UV-I 0,0 C 56 % 81 % 0 % 1024,8 hPa 0,0 l/m 0,0 km/h (0 Bft) 0 min 0,0 km/h (0 Bft)
25.07.2009 23:48 21,9 C 14,1 C 0,0 UV-I 0,0 C 56 % 81 % 0 % 1024,8 hPa 0,0 l/m 0,0 km/h (0 Bft) 0 min 0,0 km/h (0 Bft)
25.07.2009 23:50 21,9 C 14,1 C 0,0 UV-I 0,0 C 56 % 81 % 0 % 1024,8 hPa 0,0 l/m 0,0 km/h (0 Bft) 0 min 0,0 km/h (0 Bft)
25.07.2009 23:52 21,9 C 14,0 C 0,0 UV-I 0,0 C 56 % 81 % 0 % 1024,8 hPa 0,0 l/m 0,0 km/h (0 Bft) 0 min 0,0 km/h (0 Bft)
25.07.2009 23:56 21,8 C 14,0 C 0,0 UV-I 0,0 C 56 % 82 % 0 % 1025,0 hPa 0,0 l/m 0,0 km/h (0 Bft) 0 min 0,0 km/h (0 Bft)
25.07.2009 23:58 21,8 C 13,9 C 0,0 UV-I 0,0 C 56 % 82 % 0 % 1025,0 hPa 0,0 l/m 0,0 km/h (0 Bft) 0 min 0,0 km/h (0 Bft)
_ Min-Zeit 05:55 23:58 00:00 00:00 19:00 18:36 00:00 00:00 - 21:14 - 00:40
Minimum _ 20,9 C 13,9 C 0,0 UV-I 0,0 C 51 % 52 % 0 % 1015,9 hPa - 0,0 km/h (0 Bft) - 0,0 km/h (0 Bft)
_ Max-Zeit 18:22 18:20 11:04 11:04 14:42 02:15 10:40 23:56 14:00 09:50 10:10 10:30
Maximum _ 24,3 C 21,5 C 13,1 UV-I 4,8 C 64 % 86 % 100 % 1025,0 hPa 1,0 l/m 7,9 km/h
W-SW (2 Bft)
2 min 30,1 km/h
W (5 Bft)
Durchschnitt _ 22,3 C 17,6 C 1,7 UV-I 0,8 C 58 % 76 % 21 % 1020,6 hPa #3,7 l/m 3,8 km/h (1 Bft) #2:06 h 6,5 km/h (2 Bft)
© 2012 W. Hausmann